<- Previous Day | Today | Next Day ->

All Data for 29 October 2021

 

Time A - D Temp A - D Dew Point A - D Humidity A - D Pressure A - D Wind A - D Wind Dir Gust A - D Rain Rate A - D Rain Total
00:00 13.7 13.6 99 993.3 15.9 SSW 24.4 6.0 0.0
00:01 13.7 13.6 99 993.5 25.1 S 25.1 3.8 0.1
00:02 13.7 13.6 99 993.4 24.4 S 25.1 3.8 0.1
00:03 13.7 13.6 99 993.4 24.4 S 25.1 2.3 0.1
00:04 13.7 13.6 99 993.5 22.8 SE 25.1 3.0 0.2
00:05 13.7 13.6 99 993.2 25.9 S 25.9 3.0 0.3
00:06 13.6 13.5 99 993.3 24.4 S 25.9 3.8 0.3
00:07 13.6 13.5 99 993.3 18.3 S 25.9 3.8 0.4
00:08 13.6 13.5 99 993.3 17.4 SW 25.9 4.5 0.4
00:09 13.6 13.5 99 993.3 16.8 S 25.9 3.0 0.4
00:10 13.6 13.5 99 993.3 22.1 SSE 25.9 3.0 0.5
00:11 13.6 13.5 99 993.0 22.1 S 25.9 2.3 0.5
00:12 13.6 13.5 99 993.2 22.1 S 25.9 1.5 0.5
00:13 13.5 13.4 99 993.1 22.8 S 25.9 0.8 0.5
00:14 13.5 13.4 99 993.2 22.8 SE 25.9 0.8 0.5
00:15 13.5 13.4 99 993.0 22.1 NNE 24.4 0.0 0.5
00:16 13.5 13.4 99 992.9 17.4 SE 22.8 0.0 0.5
00:17 13.5 13.4 99 992.9 20.6 E 22.8 0.8 0.6
00:18 13.5 13.4 99 993.0 22.1 SSE 22.8 0.8 0.6
00:19 13.5 13.4 99 993.1 25.1 SSW 25.1 0.8 0.6
00:20 13.5 13.4 99 992.7 31.1 S 32.7 1.5 0.6
00:21 13.5 13.4 99 992.8 24.4 S 32.7 2.3 0.7
00:22 13.5 13.4 99 992.8 18.3 S 32.7 1.5 0.7
00:23 13.5 13.4 99 992.8 29.8 S 32.7 2.3 0.8
00:24 13.5 13.4 99 992.7 24.4 S 32.7 2.3 0.8
00:25 13.5 13.4 99 992.6 21.3 SSE 32.7 1.5 0.8
00:26 13.5 13.4 99 992.7 16.8 E 32.7 0.8 0.8
00:27 13.5 13.4 99 992.5 21.3 SE 32.7 0.8 0.8
00:28 13.5 13.4 99 992.7 25.1 SW 32.7 0.8 0.8
00:29 13.5 13.4 99 992.3 19.0 E 32.7 0.8 0.8
00:30 13.5 13.4 99 992.5 25.9 SSE 31.1 0.8 0.9
00:31 13.5 13.4 99 992.5 25.9 SSE 29.8 1.5 0.9
00:32 13.5 13.4 99 992.5 30.4 S 30.4 1.5 0.9
00:33 13.5 13.4 99 992.4 25.1 S 30.4 1.5 0.9
00:34 13.5 13.4 99 992.5 24.4 S 30.4 2.3 1.0
00:35 13.5 13.4 99 992.6 25.1 S 30.4 2.3 1.0
00:36 13.5 13.4 99 992.7 21.3 S 30.4 1.5 1.0
00:37 13.5 13.4 99 992.4 24.4 SSE 30.4 2.3 1.1
00:38 13.5 13.4 99 992.5 30.4 SSW 30.4 1.5 1.1
00:39 13.5 13.4 99 992.2 26.6 S 30.4 0.8 1.1
00:40 13.5 13.4 99 992.3 25.1 SE 30.4 0.8 1.1
00:41 13.5 13.4 99 992.3 19.7 S 30.4 0.8 1.1
00:42 13.5 13.4 99 992.2 21.3 S 30.4 0.0 1.1
00:43 13.5 13.4 99 992.5 30.4 S 30.4 0.0 1.1
00:44 13.5 13.4 99 992.4 30.4 S 30.4 0.0 1.1
00:45 13.5 13.4 99 992.1 28.9 SE 30.4 0.0 1.1
00:46 13.5 13.4 99 992.3 28.9 S 30.4 0.0 1.1
00:47 13.5 13.4 99 992.2 29.8 S 30.4 0.0 1.1
00:48 13.6 13.5 99 992.3 30.4 S 30.4 0.8 1.1
00:49 13.6 13.5 99 992.1 20.6 SE 30.4 0.8 1.1
00:50 13.6 13.5 99 992.1 22.8 S 30.4 0.8 1.1
00:51 13.6 13.5 99 992.2 27.3 S 30.4 0.8 1.1
00:52 13.6 13.5 99 992.2 31.1 S 31.1 0.8 1.1
00:53 13.6 13.5 99 992.3 27.3 S 32.7 0.0 1.1
00:54 13.6 13.5 99 992.2 28.9 SE 32.7 0.0 1.1
00:55 13.6 13.5 99 992.2 31.1 S 32.7 0.0 1.1
00:56 13.6 13.5 99 992.0 22.8 SSW 32.7 0.0 1.1
00:57 13.6 13.5 99 992.0 25.1 S 32.7 0.0 1.1
00:58 13.6 13.5 99 992.0 25.9 SSE 32.7 0.0 1.1
00:59 13.7 13.6 99 992.2 19.7 S 32.7 0.0 1.1
01:00 13.7 13.6 99 992.1 26.6 S 32.7 0.0 1.1
01:01 13.7 13.6 99 992.0 26.6 S 32.7 0.0 1.1
01:02 13.7 13.6 99 992.2 26.6 S 32.7 0.0 1.1
01:03 13.7 13.6 99 992.2 26.6 S 32.7 0.0 1.1
01:04 13.7 13.6 99 992.0 26.6 S 31.1 0.0 1.1
01:05 13.7 13.6 99 992.1 26.6 S 31.1 0.0 1.1
01:06 13.7 13.6 99 992.3 26.6 S 26.6 0.0 1.1
01:07 13.7 13.6 99 991.9 21.3 WSW 26.6 0.0 1.1
01:08 13.7 13.6 99 991.9 20.6 S 26.6 0.0 1.1
01:09 13.7 13.6 99 992.2 20.6 S 26.6 0.0 1.1
01:10 13.7 13.6 99 992.0 15.9 SW 26.6 0.0 1.1
01:11 13.7 13.6 99 992.2 10.7 SE 26.6 0.0 1.1
01:12 13.7 13.6 99 991.9 13.0 SW 26.6 0.0 1.1
01:13 13.7 13.6 99 992.1 13.0 SW 26.6 0.0 1.1
01:14 13.7 13.6 99 992.3 14.5 SW 26.6 0.0 1.1
01:15 13.6 13.5 99 992.0 19.0 SW 26.6 0.0 1.3
01:16 13.6 13.5 99 992.2 19.0 S 21.3 3.0 1.4
01:17 13.5 13.4 99 992.1 19.7 S 20.6 4.5 1.6
01:18 13.4 13.3 99 992.0 16.8 S 20.6 6.0 1.7
01:19 13.4 13.3 99 992.2 15.2 NNE 19.7 6.8 1.8
01:20 13.3 13.2 99 992.1 10.7 SW 19.7 7.6 1.8
01:21 13.3 13.2 99 992.1 13.0 SE 19.7 6.0 1.9
01:22 13.2 13.1 99 991.8 11.4 SW 19.7 4.5 1.9
01:23 13.2 13.1 99 991.7 11.4 NW 19.7 5.3 2.1
01:24 13.1 13.0 99 991.9 8.3 SW 19.7 5.3 2.1
01:25 13.1 13.0 99 991.7 8.3 SW 19.7 4.5 2.1
01:26 13.1 13.0 99 991.8 13.0 SW 19.7 3.8 2.2
01:27 13.1 13.0 99 991.8 11.4 WSW 19.7 4.5 2.3
01:28 13.0 12.9 99 992.0 13.0 SW 19.7 2.3 2.3
01:29 13.0 12.9 99 991.9 9.8 SW 15.2 2.3 2.3
01:30 13.0 12.9 99 992.0 12.1 W 13.0 2.3 2.3
01:31 13.0 12.9 99 991.9 13.6 NW 13.6 1.5 2.4
01:32 13.0 12.9 99 991.7 13.6 NW 13.6 1.5 2.4
01:33 13.0 12.9 99 991.8 13.0 SW 13.6 2.3 2.5
01:34 13.0 12.9 99 991.7 15.2 SW 15.2 1.5 2.5
01:35 13.0 12.9 99 991.9 12.1 S 15.2 2.3 2.6
01:36 13.0 12.9 99 991.4 13.0 SW 15.2 3.8 2.6
01:37 13.0 12.9 99 992.0 11.4 SW 15.2 3.8 2.7
01:38 13.0 12.9 99 991.7 11.4 SW 15.2 3.0 2.7
01:39 13.0 12.9 99 991.6 9.8 S 15.2 4.5 2.8
01:40 13.0 12.9 99 991.6 7.6 S 15.2 3.8 2.8
01:41 13.0 12.9 99 991.7 7.6 S 15.2 2.3 2.8
01:42 13.0 12.9 99 991.7 9.2 SE 15.2 2.3 2.9
01:43 13.0 12.9 99 991.6 9.2 S 15.2 2.3 2.9
01:44 13.0 12.9 99 991.7 9.8 SW 15.2 0.8 2.9
01:45 13.0 12.9 99 991.8 12.1 S 13.0 0.8 2.9
01:46 13.0 12.9 99 991.6 12.1 S 13.0 0.8 2.9
01:47 13.1 13.0 99 991.6 19.0 S 19.0 0.0 2.9
01:48 13.2 13.1 99 991.6 22.1 S 22.1 0.0 2.9
01:49 13.4 13.3 99 991.4 14.5 S 22.1 0.0 2.9
01:50 13.4 13.3 99 991.6 19.0 S 22.1 0.0 2.9
01:51 13.4 13.3 99 991.6 19.0 S 22.1 0.0 2.9
01:52 13.5 13.4 99 991.6 18.3 SW 22.1 0.0 2.9
01:53 13.6 13.5 99 991.5 16.8 SW 22.1 0.0 2.9
01:54 13.6 13.5 99 991.7 15.2 SW 22.1 0.0 2.9
01:55 13.6 13.5 99 991.7 16.8 WSW 22.1 0.0 2.9
01:56 13.7 13.6 99 991.7 20.6 S 22.1 0.0 2.9
01:57 13.7 13.6 99 991.6 22.8 SSW 22.8 0.0 2.9
01:58 13.8 13.7 99 991.8 17.4 SW 22.8 0.0 2.9
01:59 13.8 13.7 99 991.9 17.4 WSW 22.8 0.0 2.9
02:00 13.8 13.7 99 991.8 23.5 S 23.5 0.0 2.9
02:01 13.8 13.7 99 991.7 18.3 NE 23.5 0.0 2.9
02:02 13.8 13.7 99 991.9 15.9 S 23.5 0.0 2.9
02:03 13.8 13.7 99 991.7 18.3 S 23.5 0.0 2.9
02:04 13.8 13.7 99 991.6 19.0 S 23.5 0.0 2.9
02:05 13.8 13.7 99 991.5 23.5 SW 23.5 0.0 2.9
02:06 13.9 13.8 99 991.7 15.9 SW 23.5 0.0 2.9
02:07 13.9 13.8 99 991.6 15.2 S 23.5 0.0 2.9
02:08 13.9 13.8 99 991.6 15.2 S 23.5 0.0 2.9
02:09 13.9 13.8 99 991.3 18.3 SW 23.5 0.0 2.9
02:10 13.9 13.8 99 991.5 15.2 SW 23.5 0.0 2.9
02:11 13.9 13.8 99 991.6 15.2 SW 23.5 0.0 2.9
02:12 13.9 13.8 99 991.6 15.2 SW 23.5 0.0 2.9
02:13 13.9 13.8 99 991.3 15.2 S 23.5 0.0 2.9
02:14 13.9 13.8 99 991.5 16.8 SW 23.5 0.0 2.9
02:15 13.9 13.8 99 991.3 16.8 SW 18.3 0.0 2.9
02:16 13.9 13.8 99 991.3 18.3 S 18.3 0.0 2.9
02:17 13.9 13.8 99 991.5 13.6 S 18.3 0.0 2.9
02:18 13.9 13.8 99 991.3 15.9 SW 18.3 0.0 2.9
02:19 13.9 13.8 99 991.3 15.9 SW 18.3 0.0 2.9
02:20 13.8 13.7 99 991.3 13.0 SSE 18.3 0.0 2.9
02:21 13.8 13.7 99 991.5 13.0 S 18.3 0.0 2.9
02:22 13.8 13.7 99 991.4 12.1 SW 18.3 0.0 2.9
02:23 13.8 13.7 99 991.3 17.4 SW 18.3 0.0 2.9
02:24 13.7 13.6 99 991.5 16.8 S 18.3 0.0 2.9
02:25 13.7 13.6 99 991.3 16.8 SW 18.3 0.0 2.9
02:26 13.6 13.5 99 991.4 13.6 SW 17.4 0.0 2.9
02:27 13.6 13.5 99 991.6 15.2 S 17.4 0.0 2.9
02:28 13.6 13.5 99 991.4 13.0 S 17.4 0.0 2.9
02:29 13.6 13.5 99 991.5 13.6 S 17.4 0.0 2.9
02:30 13.5 13.4 99 991.4 12.1 S 17.4 0.0 2.9
02:31 13.5 13.4 99 991.6 11.4 S 17.4 0.0 2.9
02:32 13.5 13.4 99 991.4 15.2 S 17.4 0.0 2.9
02:33 13.4 13.3 99 991.5 15.2 S 17.4 0.0 2.9
02:34 13.4 13.3 99 991.4 13.0 SW 16.8 0.0 2.9
02:35 13.4 13.3 99 991.5 12.1 SW 16.8 0.0 2.9
02:36 13.4 13.3 99 991.7 12.1 S 15.2 0.0 2.9
02:37 13.4 13.3 99 991.6 15.9 SW 15.9 0.0 2.9
02:38 13.3 13.2 99 991.8 15.9 SW 15.9 0.0 2.9
02:39 13.3 13.2 99 991.6 13.0 SW 15.9 0.0 2.9
02:40 13.3 13.2 99 991.8 15.9 S 15.9 0.8 3.0
02:41 13.3 13.2 99 991.6 15.2 SW 15.9 1.5 3.1
02:42 13.2 13.1 99 991.7 13.6 S 15.9 2.3 3.1
02:43 13.2 13.1 99 991.8 21.3 SW 21.3 2.3 3.1
02:44 13.2 13.1 99 991.7 18.3 WSW 21.3 2.3 3.1
02:45 13.1 13.0 99 991.6 19.0 SW 21.3 1.5 3.1
02:46 13.1 13.0 99 991.6 16.8 SW 21.3 0.8 3.1
02:47 13.1 13.0 99 991.6 16.8 SW 21.3 0.8 3.1
02:48 13.0 12.9 99 991.5 15.9 SW 21.3 1.5 3.2
02:49 13.0 12.9 99 991.6 11.4 SW 21.3 2.3 3.3
02:50 12.9 12.8 99 991.5 15.9 S 21.3 2.3 3.3
02:51 12.9 12.8 99 991.5 14.5 S 21.3 2.3 3.3
02:52 12.8 12.7 99 991.5 10.7 SW 21.3 2.3 3.3
02:53 12.7 12.6 99 991.5 11.4 SW 21.3 1.5 3.3
02:54 12.7 12.6 99 991.4 9.8 SW 19.0 0.8 3.3
02:55 12.6 12.5 99 991.5 7.6 SW 19.0 0.8 3.3
02:56 12.6 12.5 99 991.6 11.4 SW 16.8 0.8 3.3
02:57 12.6 12.5 99 991.3 9.8 SW 15.9 0.0 3.3
02:58 12.5 12.2 98 991.2 7.6 SW 15.9 0.0 3.4
02:59 12.5 12.2 98 991.2 8.3 NW 15.9 0.8 3.4
03:00 12.5 12.2 98 991.2 11.4 SW 14.5 0.8 3.4
03:01 12.5 12.2 98 991.0 11.4 SW 11.4 0.8 3.4
03:02 12.5 12.2 98 991.0 11.4 SW 11.4 0.8 3.4
03:03 12.5 12.2 98 990.9 11.4 SW 11.4 0.8 3.4
03:04 12.5 12.2 98 990.8 11.4 SW 11.4 0.0 3.4
03:05 12.5 12.2 98 990.9 11.4 SW 11.4 0.0 3.4
03:06 12.5 12.2 98 990.7 11.4 SW 11.4 0.0 3.4
03:07 12.5 12.2 98 990.7 11.4 SW 11.4 0.0 3.4
03:08 12.4 12.4 100 990.5 9.2 NW 11.4 0.0 3.4
03:09 12.3 12.3 100 990.7 6.9 S 11.4 0.0 3.4
03:10 12.3 12.3 100 990.9 7.6 SW 11.4 0.0 3.4
03:11 12.3 12.3 100 990.8 8.3 SW 11.4 0.0 3.4
03:12 12.3 12.3 100 990.8 9.2 NW 11.4 0.0 3.4
03:13 12.2 12.2 100 990.6 6.0 NW 11.4 0.0 3.4
03:14 12.2 12.2 100 990.6 6.0 S 11.4 0.0 3.4
03:15 12.2 12.2 100 990.8 5.4 SW 11.4 0.0 3.4
03:16 12.2 12.2 100 990.7 6.0 SW 11.4 0.0 3.4
03:17 12.2 12.2 100 990.9 6.0 S 11.4 0.0 3.4
03:18 12.1 12.1 100 990.8 9.8 S 9.8 0.0 3.4
03:19 12.1 12.1 100 991.0 9.8 S 9.8 0.8 3.5
03:20 12.1 12.1 100 990.7 6.0 SW 9.8 0.8 3.5
03:21 12.1 12.1 100 990.8 6.0 NW 9.8 0.8 3.5
03:22 12.1 12.1 100 990.7 4.5 WSW 9.8 0.8 3.5
03:23 12.1 12.1 100 990.6 5.4 S 9.8 0.8 3.5
03:24 12.0 12.0 100 990.8 6.9 SSW 9.8 0.0 3.5
03:25 12.0 12.0 100 990.7 7.6 SW 9.8 0.0 3.5
03:26 12.0 12.0 100 990.7 7.6 SW 9.8 0.0 3.5
03:27 12.0 12.0 100 991.0 7.6 SW 9.8 0.0 3.5
03:28 12.0 12.0 100 990.9 7.6 S 9.8 0.0 3.5
03:29 11.9 11.9 100 991.0 9.2 SSW 9.2 0.0 3.5
03:30 11.9 11.9 100 991.0 9.2 SSW 9.2 0.0 3.5
03:31 11.9 11.9 100 990.9 7.6 SW 9.2 0.0 3.5
03:32 11.9 11.9 100 990.9 8.3 SW 9.2 0.0 3.5
03:33 11.9 11.9 100 990.8 9.2 S 9.2 0.0 3.5
03:34 11.9 11.9 100 991.0 9.8 S 9.8 0.0 3.5
03:35 11.9 11.9 100 990.9 9.8 S 9.8 0.0 3.5
03:36 11.9 11.9 100 990.8 7.6 SW 9.8 0.0 3.5
03:37 11.9 11.9 100 990.8 7.6 SW 9.8 0.0 3.5
03:38 11.9 11.9 100 990.9 7.6 SW 9.8 0.0 3.5
03:39 11.9 11.9 100 991.0 7.6 SW 9.8 0.0 3.5
03:40 11.9 11.9 100 991.0 6.0 S 9.8 0.0 3.5
03:41 11.9 11.9 100 990.9 7.6 S 9.8 0.0 3.5
03:42 11.9 11.9 100 991.1 6.9 SW 9.8 0.0 3.5
03:43 11.9 11.9 100 990.8 6.9 SSE 9.8 0.0 3.5
03:44 11.9 11.9 100 990.9 7.6 S 9.8 0.0 3.5
03:45 11.9 11.9 100 991.0 6.9 SSW 7.6 0.0 3.5
03:46 11.9 11.9 100 991.0 6.9 S 7.6 0.0 3.5
03:47 11.9 11.9 100 991.1 6.9 S 7.6 0.0 3.5
03:48 11.9 11.9 100 991.0 6.9 SW 7.6 0.0 3.5
03:49 11.9 11.9 100 991.1 6.9 S 7.6 0.0 3.5
03:50 11.9 11.9 100 991.1 6.9 SE 7.6 0.0 3.5
03:51 11.9 11.9 100 991.2 8.3 S 8.3 0.0 3.5
03:52 11.9 11.9 100 991.2 8.3 S 8.3 0.0 3.5
03:53 11.9 11.9 100 991.2 8.3 S 8.3 0.0 3.5
03:54 11.9 11.9 100 991.0 8.3 S 8.3 0.0 3.5
03:55 11.9 11.9 100 991.1 7.6 S 8.3 0.0 3.5
03:56 11.9 11.9 100 990.9 8.3 S 8.3 0.0 3.5
03:57 12.0 12.0 100 991.1 8.3 S 8.3 0.0 3.5
03:58 12.0 12.0 100 991.1 8.3 S 8.3 0.0 3.5
03:59 12.0 12.0 100 991.0 8.3 NW 8.3 0.0 3.5
04:00 12.0 12.0 100 991.2 6.9 S 8.3 0.0 3.5
04:01 12.0 12.0 100 991.2 7.6 S 8.3 0.0 3.5
04:02 12.0 12.0 100 991.2 7.6 SW 8.3 0.0 3.5
04:03 12.0 12.0 100 991.4 7.6 S 8.3 0.0 3.5
04:04 12.0 12.0 100 991.2 8.3 S 8.3 0.0 3.5
04:05 12.0 12.0 100 991.1 9.8 SW 9.8 0.0 3.5
04:06 12.0 12.0 100 991.2 12.1 SW 12.1 0.0 3.5
04:07 12.0 12.0 100 991.1 8.3 SW 12.1 0.0 3.5
04:08 12.0 12.0 100 991.0 6.9 SW 12.1 0.0 3.5
04:09 12.0 12.0 100 991.0 6.9 SW 12.1 0.0 3.5
04:10 12.0 12.0 100 991.1 7.6 SW 12.1 0.0 3.5
04:11 12.1 12.1 100 991.2 7.6 SE 12.1 0.0 3.5
04:12 12.1 12.1 100 990.8 6.9 SW 12.1 0.0 3.5
04:13 12.1 12.1 100 990.8 6.9 S 12.1 0.0 3.5
04:14 12.0 12.0 100 990.8 7.6 SW 12.1 0.0 3.5
04:15 12.1 12.1 100 990.8 5.4 S 12.1 0.0 3.5
04:16 12.1 12.1 100 990.7 4.5 SW 12.1 0.0 3.5
04:17 12.0 12.0 100 990.6 4.5 SW 9.2 0.0 3.5
04:18 12.0 12.0 100 990.7 5.4 SW 9.2 0.0 3.5
04:19 12.0 12.0 100 991.0 6.0 SW 7.6 0.0 3.5
04:20 12.0 12.0 100 991.1 6.0 S 7.6 0.0 3.5
04:21 12.0 12.0 100 991.1 6.9 SW 7.6 0.8 3.5
04:22 12.0 12.0 100 991.1 4.5 SW 7.6 0.8 3.5
04:23 12.0 12.0 100 991.1 4.5 SW 7.6 0.8 3.5
04:24 12.0 12.0 100 991.0 6.0 SW 7.6 0.8 3.5
04:25 12.0 12.0 100 991.1 4.5 SW 7.6 0.8 3.5
04:26 12.0 12.0 100 991.1 4.5 SW 7.6 0.0 3.5
04:27 12.0 12.0 100 990.8 4.5 NW 7.6 0.0 3.5
04:28 12.0 12.0 100 991.1 7.6 SW 7.6 0.0 3.5
04:29 12.0 12.0 100 991.2 7.6 SW 7.6 0.0 3.5
04:30 12.0 12.0 100 991.1 6.0 S 7.6 0.0 3.5
04:31 12.0 12.0 100 991.1 6.0 SW 7.6 0.0 3.5
04:32 12.0 12.0 100 991.2 6.0 NW 7.6 0.0 3.5
04:33 11.9 11.9 100 991.3 7.6 S 7.6 0.0 3.5
04:34 11.9 11.9 100 991.1 6.0 S 7.6 0.0 3.5
04:35 11.9 11.9 100 991.2 6.9 S 7.6 0.0 3.5
04:36 11.9 11.9 100 991.3 5.4 NW 7.6 0.0 3.5
04:37 11.9 11.9 100 991.3 5.4 S 7.6 0.0 3.5
04:38 11.9 11.9 100 991.2 5.4 SW 7.6 0.0 3.5
04:39 11.9 11.9 100 991.4 6.0 S 7.6 0.0 3.5
04:40 11.9 11.9 100 991.3 6.0 SW 7.6 0.0 3.5
04:41 11.9 11.9 100 991.2 5.4 SW 7.6 0.0 3.5
04:42 11.9 11.9 100 991.3 6.0 SW 7.6 0.0 3.5
04:43 11.9 11.9 100 991.2 5.4 SW 7.6 0.0 3.5
04:44 11.9 11.9 100 991.3 6.9 S 6.9 0.0 3.5
04:45 11.9 11.9 100 991.3 7.6 SW 7.6 0.0 3.5
04:46 11.9 11.9 100 991.3 7.6 SW 7.6 0.0 3.5
04:47 11.9 11.9 100 991.4 9.2 SW 9.2 0.0 3.5
04:48 11.9 11.9 100 991.4 6.9 NNW 9.2 0.0 3.5
04:49 11.9 11.9 100 991.3 3.8 S 9.2 0.0 3.5
04:50 11.9 11.9 100 991.3 6.0 NW 9.2 0.0 3.5
04:51 11.9 11.9 100 991.4 6.9 SW 9.2 0.0 3.5
04:52 11.9 11.9 100 991.2 6.9 NNW 9.2 0.0 3.5
04:53 11.9 11.9 100 991.4 5.4 NW 9.2 0.0 3.5
04:54 11.9 11.9 100 991.3 5.4 NW 9.2 0.0 3.5
04:55 11.9 11.9 100 991.3 5.4 NW 9.2 0.0 3.5
04:56 11.9 11.9 100 991.4 3.8 SW 9.2 0.0 3.5
04:57 11.8 11.8 100 991.7 4.5 W 9.2 0.0 3.5
04:58 11.8 11.8 100 991.6 5.4 NW 7.6 0.0 3.5
04:59 11.8 11.8 100 991.4 5.4 WNW 7.6 0.0 3.5
05:00 11.8 11.8 100 991.6 3.1 WSW 7.6 0.0 3.5
05:01 11.8 11.8 100 991.6 3.1 WSW 7.6 0.0 3.5
05:02 11.8 11.8 100 991.5 3.1 WSW 7.6 0.0 3.5
05:03 11.8 11.8 100 991.6 3.1 WSW 5.4 0.0 3.5
05:04 11.8 11.8 100 991.4 3.1 WSW 5.4 0.0 3.5
05:05 11.8 11.8 100 991.7 3.1 WSW 5.4 0.0 3.5
05:06 11.8 11.8 100 991.6 6.0 SW 6.0 0.0 3.5
05:07 11.8 11.8 100 991.5 6.0 SW 6.0 0.0 3.5
05:08 11.7 11.7 100 991.4 4.5 NE 6.0 0.0 3.5
05:09 11.7 11.7 100 991.6 4.5 NE 6.0 0.0 3.5
05:10 11.7 11.7 100 991.8 3.1 SW 6.0 0.0 3.5
05:11 11.7 11.7 100 991.7 3.8 SW 6.0 0.0 3.5
05:12 11.7 11.7 100 991.6 5.4 NW 6.0 0.0 3.5
05:13 11.7 11.7 100 991.6 4.5 SW 6.0 0.0 3.5
05:14 11.7 11.7 100 991.6 4.5 NW 6.0 0.0 3.5
05:15 11.7 11.7 100 991.4 4.5 W 6.0 0.0 3.5
05:16 11.6 11.6 100 991.4 5.4 SW 6.0 0.0 3.5
05:17 11.6 11.6 100 991.6 3.8 NW 6.0 0.0 3.5
05:18 11.6 11.6 100 991.6 3.8 SW 5.4 0.0 3.5
05:19 11.6 11.6 100 991.6 3.8 NW 5.4 0.0 3.5
05:20 11.6 11.6 100 991.7 4.5 NW 5.4 0.0 3.5
05:21 11.6 11.6 100 991.6 3.1 SW 5.4 0.0 3.5
05:22 11.6 11.6 100 991.7 3.8 NW 5.4 0.0 3.5
05:23 11.6 11.6 100 991.7 3.8 NW 5.4 0.0 3.5
05:24 11.6 11.6 100 991.8 4.5 NW 5.4 0.0 3.5
05:25 11.6 11.6 100 991.7 4.5 WSW 5.4 0.0 3.5
05:26 11.5 11.5 100 991.6 3.8 SW 5.4 0.0 3.5
05:27 11.5 11.5 100 991.8 3.1 S 4.5 0.0 3.5
05:28 11.5 11.5 100 991.7 3.8 NW 4.5 0.0 3.5
05:29 11.5 11.5 100 991.7 3.8 SW 4.5 0.0 3.5
05:30 11.5 11.5 100 991.7 4.5 WSW 4.5 0.0 3.5
05:31 11.5 11.5 100 991.7 3.8 S 4.5 0.0 3.5
05:32 11.5 11.5 100 991.7 3.1 SW 4.5 0.0 3.5
05:33 11.5 11.5 100 991.6 3.8 SW 4.5 0.0 3.5
05:34 11.5 11.5 100 991.8 3.8 NW 4.5 0.0 3.6
05:35 11.4 11.4 100 991.8 3.8 WSW 4.5 0.8 3.6
05:36 11.4 11.4 100 991.7 3.8 SW 4.5 0.8 3.6
05:37 11.4 11.4 100 991.9 3.8 SW 4.5 0.8 3.6
05:38 11.4 11.4 100 991.9 3.8 SW 4.5 0.8 3.6
05:39 11.4 11.4 100 992.0 4.5 SW 4.5 0.8 3.6
05:40 11.4 11.4 100 991.7 3.8 SW 4.5 0.0 3.6
05:41 11.4 11.4 100 991.9 3.1 SW 4.5 0.0 3.6
05:42 11.4 11.4 100 991.8 2.2 SW 4.5 0.0 3.6
05:43 11.4 11.4 100 991.7 3.8 SW 4.5 0.0 3.6
05:44 11.4 11.4 100 992.0 3.1 SW 4.5 0.0 3.6
05:45 11.4 11.4 100 991.9 3.1 SW 4.5 0.0 3.6
05:46 11.3 11.3 100 992.1 3.1 W 4.5 0.0 3.6
05:47 11.3 11.3 100 992.0 3.8 SW 4.5 0.0 3.6
05:48 11.3 11.3 100 992.0 3.8 SW 4.5 0.0 3.6
05:49 11.3 11.3 100 992.1 3.8 SW 4.5 0.0 3.6
05:50 11.3 11.3 100 992.0 3.8 WSW 3.8 0.0 3.6
05:51 11.3 11.3 100 991.9 3.8 NW 3.8 0.0 3.6
05:52 11.3 11.3 100 992.1 3.1 SW 3.8 0.0 3.6
05:53 11.3 11.3 100 992.0 3.8 NW 3.8 0.0 3.6
05:54 11.3 11.3 100 992.0 4.5 SW 4.5 0.0 3.6
05:55 11.3 11.3 100 992.3 3.8 SW 4.5 0.0 3.6
05:56 11.3 11.3 100 991.9 5.4 NNW 5.4 0.0 3.6
05:57 11.3 11.3 100 991.9 5.4 NW 5.4 0.8 3.7
05:58 11.3 11.3 100 992.1 6.0 SW 6.0 1.5 3.7
05:59 11.4 11.4 100 992.0 6.0 SW 6.0 1.5 3.7
06:00 11.4 11.4 100 992.0 6.9 SSW 6.9 1.5 3.7
06:01 11.4 11.4 100 992.0 6.0 SW 6.9 1.5 3.7
06:02 11.4 11.4 100 992.1 5.4 NW 6.9 0.8 3.7
06:03 11.4 11.4 100 992.0 5.4 NW 6.9 0.0 3.7
06:04 11.4 11.4 100 992.1 5.4 NW 6.9 0.0 3.7
06:05 11.4 11.4 100 992.1 4.5 NW 6.9 0.8 3.8
06:06 11.4 11.4 100 992.1 4.5 NW 6.9 0.8 3.8
06:07 11.4 11.4 100 992.3 4.5 WNW 6.9 0.8 3.8
06:08 11.4 11.4 100 992.0 3.1 NW 6.9 1.5 3.8
06:09 11.4 11.4 100 992.2 3.8 SW 6.9 1.5 3.8
06:10 11.4 11.4 100 992.3 4.5 SW 6.9 0.8 3.8
06:11 11.4 11.4 100 992.0 6.0 SW 6.9 0.8 3.8
06:12 11.4 11.4 100 992.3 5.4 SW 6.0 1.5 3.9
06:13 11.4 11.4 100 992.1 5.4 SW 6.0 0.8 3.9
06:14 11.4 11.4 100 992.2 4.5 NW 6.0 0.8 3.9
06:15 11.4 11.4 100 992.4 3.8 W 6.0 0.8 3.9
06:16 11.4 11.4 100 992.3 4.5 SW 6.0 1.5 4.0
06:17 11.3 11.3 100 992.2 4.5 SW 6.0 0.8 4.0
06:18 11.3 11.3 100 992.3 5.4 SW 6.0 0.8 4.0
06:19 11.3 11.3 100 992.3 6.0 SW 6.0 0.8 4.0
06:20 11.3 11.3 100 992.7 6.9 SW 6.9 0.8 4.0
06:21 11.3 11.3 100 992.3 6.9 N 6.9 0.8 4.0
06:22 11.3 11.3 100 992.5 6.0 NW 6.9 0.8 4.0
06:23 11.3 11.3 100 992.5 6.0 NW 6.9 0.8 4.0
06:24 11.3 11.3 100 992.4 6.0 SW 6.9 0.8 4.0
06:25 11.3 11.3 100 992.5 6.9 NW 6.9 0.8 4.0
06:26 11.3 11.3 100 992.4 5.4 SW 6.9 0.0 4.0
06:27 11.3 11.3 100 992.5 6.0 SW 6.9 0.0 4.0
06:28 11.3 11.3 100 992.5 5.4 SW 6.9 0.0 4.0
06:29 11.3 11.3 100 992.7 6.0 NW 6.9 0.0 4.0
06:30 11.3 11.3 100 992.6 5.4 SW 6.9 0.0 4.0
06:31 11.3 11.3 100 992.7 5.4 SW 6.9 0.0 4.0
06:32 11.3 11.3 100 992.6 5.4 SW 6.9 0.8 4.1
06:33 11.3 11.3 100 992.8 6.0 WNW 6.9 0.8 4.1
06:34 11.3 11.3 100 992.7 8.3 SW 8.3 0.8 4.1
06:35 11.3 11.3 100 992.7 8.3 SW 8.3 0.8 4.1
06:36 11.3 11.3 100 992.8 12.1 SW 12.1 1.5 4.2
06:37 11.3 11.3 100 992.8 12.1 NW 12.1 0.8 4.2
06:38 11.3 11.3 100 992.9 12.1 NNE 12.1 0.8 4.2
06:39 11.3 11.3 100 992.7 8.3 SW 12.1 0.8 4.2
06:40 11.3 11.3 100 992.7 9.8 NW 12.1 1.5 4.2
06:41 11.3 11.3 100 992.9 9.8 NE 12.1 0.8 4.2
06:42 11.3 11.3 100 992.9 7.6 NW 12.1 0.8 4.3
06:43 11.3 11.3 100 993.0 10.7 SW 12.1 1.5 4.3
06:44 11.3 11.3 100 993.0 9.8 W 12.1 3.0 4.4
06:45 11.2 11.2 100 993.1 9.8 N 12.1 3.0 4.5
06:46 11.2 11.2 100 993.0 10.7 NW 12.1 3.8 4.6
06:47 11.2 11.2 100 992.9 8.3 WSW 12.1 4.5 4.7
06:48 11.2 11.2 100 993.1 5.4 SW 10.7 4.5 4.7
06:49 11.2 11.2 100 992.9 9.8 SW 10.7 3.8 4.7
06:50 11.2 11.2 100 992.9 9.8 SW 10.7 3.0 4.7
06:51 11.1 11.1 100 993.1 10.7 NW 10.7 3.0 4.8
06:52 11.1 11.1 100 992.9 9.2 SW 10.7 3.0 4.9
06:53 11.1 11.1 100 993.2 8.3 NW 10.7 3.0 4.9
06:54 11.1 11.1 100 993.0 9.2 NE 10.7 3.0 5.0
06:55 11.1 11.1 100 993.1 9.2 WNW 10.7 3.0 5.0
06:56 11.1 11.1 100 993.3 13.6 SW 13.6 3.0 5.0
06:57 11.1 11.1 100 993.3 13.6 SW 13.6 3.0 5.1
06:58 11.1 11.1 100 993.2 15.2 SW 15.2 2.3 5.2
06:59 11.1 11.1 100 992.9 15.2 SW 15.2 2.3 5.2
07:00 11.1 11.1 100 993.3 13.0 SW 15.2 3.0 5.2
07:01 11.1 11.1 100 993.3 13.0 SW 15.2 2.3 5.2
07:02 11.1 11.1 100 993.2 13.0 SW 15.2 1.5 5.2
07:03 11.1 11.1 100 993.5 13.0 SW 15.2 1.5 5.2
07:04 11.1 11.1 100 993.4 13.0 SW 15.2 0.8 5.2
07:05 11.1 11.1 100 993.7 13.0 SW 15.2 0.0 5.2
07:06 11.1 11.1 100 993.4 13.0 SW 15.2 0.0 5.2
07:07 11.1 11.1 100 993.4 13.0 SW 15.2 0.0 5.2
07:08 11.1 11.1 100 993.4 13.0 SW 15.2 0.0 5.2
07:09 10.9 10.9 100 993.2 12.1 NW 15.2 6.0 5.7
07:10 10.9 10.9 100 993.5 9.8 NW 13.0 6.0 5.7
07:11 10.9 10.9 100 993.4 9.8 NW 13.0 6.0 5.7
07:12 10.8 10.8 100 993.5 13.6 WSW 13.6 6.8 5.8
07:13 10.8 10.8 100 993.2 12.1 NW 13.6 7.6 5.9
07:14 10.8 10.8 100 993.5 10.7 SW 13.6 2.3 6.0
07:15 10.8 10.8 100 993.6 9.8 SW 13.6 3.0 6.0
07:16 10.8 10.8 100 993.5 9.8 SW 13.6 3.8 6.0
07:17 10.8 10.8 100 993.5 13.0 WSW 13.6 3.8 6.2
07:18 10.8 10.8 100 993.3 9.8 WNW 13.6 3.8 6.2
07:19 10.8 10.8 100 993.3 9.8 WNW 13.6 3.8 6.2
07:20 10.8 10.8 100 993.5 6.9 SW 13.6 4.5 6.4
07:21 10.8 10.8 100 993.6 10.7 SW 13.6 4.5 6.4
07:22 10.8 10.8 100 993.4 10.7 NW 13.6 4.5 6.5
07:23 10.8 10.8 100 993.6 11.4 SW 13.0 3.8 6.5
07:24 10.8 10.8 100 993.6 10.7 SW 13.0 3.8 6.6
07:25 10.8 10.8 100 993.6 9.8 WNW 13.0 3.0 6.6
07:26 10.7 10.7 100 993.4 11.4 NW 13.0 2.3 6.7
07:27 10.7 10.7 100 993.6 9.8 SW 13.0 2.3 6.7
07:28 10.7 10.7 100 993.7 9.8 SW 11.4 3.0 6.7
07:29 10.7 10.7 100 993.5 6.0 NW 11.4 2.3 6.7
07:30 10.7 10.7 100 993.7 6.0 NW 11.4 1.5 6.8
07:31 10.7 10.7 100 993.7 9.8 NW 11.4 2.3 6.8
07:32 10.7 10.7 100 993.8 9.2 NW 11.4 2.3 6.9
07:33 10.7 10.7 100 993.7 8.3 NW 11.4 1.5 6.9
07:34 10.7 10.7 100 993.7 8.3 NW 11.4 1.5 6.9
07:35 10.7 10.7 100 993.6 5.4 NW 11.4 1.5 6.9
07:36 10.7 10.7 100 993.6 6.9 W 11.4 1.5 6.9
07:37 10.7 10.7 100 993.6 8.3 NW 9.8 0.8 6.9
07:38 10.7 10.7 100 993.6 9.2 SW 9.8 1.5 7.0
07:39 10.8 10.8 100 993.7 6.9 NW 9.8 1.5 7.0
07:40 10.8 10.8 100 993.6 8.3 NE 12.1 1.5 7.0
07:41 10.8 10.8 100 993.8 9.8 NW 12.1 0.8 7.0
07:42 10.8 10.8 100 993.8 7.6 N 12.1 0.8 7.0
07:43 10.8 10.8 100 993.9 9.2 WNW 12.1 0.0 7.0
07:44 10.8 10.8 100 993.8 7.6 NE 12.1 0.0 7.0
07:45 10.8 10.8 100 993.9 6.9 SW 12.1 0.8 7.1
07:46 10.8 10.8 100 993.8 9.2 WSW 12.1 0.8 7.1
07:47 10.8 10.8 100 993.9 8.3 SW 12.1 0.8 7.1
07:48 10.8 10.8 100 993.8 7.6 SW 12.1 0.8 7.1
07:49 10.8 10.8 100 993.9 9.2 S 12.1 0.8 7.1
07:50 10.8 10.8 100 993.9 9.8 SW 9.8 0.0 7.1
07:51 10.8 10.8 100 994.0 7.6 SW 9.8 0.0 7.1
07:52 10.8 10.8 100 994.0 9.2 S 9.8 0.0 7.1
07:53 10.9 10.9 100 993.9 7.6 SW 9.8 0.0 7.1
07:54 10.9 10.9 100 994.0 6.9 WSW 9.8 0.0 7.1
07:55 10.9 10.9 100 994.1 8.3 SW 9.8 0.0 7.1
07:56 10.9 10.9 100 993.8 9.2 S 9.8 0.0 7.1
07:57 10.9 10.9 100 994.0 6.9 SW 9.8 0.0 7.1
07:58 10.9 10.9 100 994.1 6.9 NW 9.8 0.0 7.1
07:59 10.9 10.9 100 994.2 7.6 SW 9.8 0.0 7.1
08:00 10.9 10.9 100 994.3 7.6 SW 9.2 0.0 7.1
08:01 10.9 10.9 100 994.2 8.3 NW 11.4 0.0 7.1
08:02 10.9 10.9 100 994.2 8.3 NW 11.4 0.0 7.1
08:03 10.9 10.9 100 994.2 7.6 NE 11.4 0.0 7.1
08:04 10.9 10.9 100 994.4 12.1 SW 12.1 0.0 7.1
08:05 10.9 10.9 100 994.4 12.1 SW 12.1 0.0 7.1
08:06 10.9 10.9 100 994.2 9.2 NW 12.1 0.8 7.1
08:07 10.9 10.9 100 994.4 9.2 SSW 12.1 0.8 7.1
08:08 11.0 11.0 100 994.5 11.4 SW 12.1 0.8 7.1
08:09 11.0 11.0 100 994.2 12.1 NNE 12.1 0.8 7.1
08:10 11.0 11.0 100 994.5 9.8 SW 12.1 0.8 7.1
08:11 11.0 11.0 100 994.6 9.8 SW 12.1 0.0 7.1
08:12 11.0 11.0 100 994.4 8.3 NW 12.1 0.0 7.1
08:13 11.0 11.0 100 994.5 7.6 SW 12.1 0.0 7.1
08:14 11.0 11.0 100 994.5 8.3 NW 12.1 0.0 7.1
08:15 11.0 11.0 100 994.5 9.2 SW 12.1 0.0 7.1
08:16 11.0 11.0 100 994.6 8.3 S 12.1 0.0 7.1
08:17 11.0 11.0 100 994.6 9.8 NW 12.1 0.0 7.2
08:18 11.0 11.0 100 994.6 9.8 NW 12.1 1.5 7.2
08:19 11.0 11.0 100 994.7 9.8 NW 12.1 1.5 7.2
08:20 11.0 11.0 100 994.9 9.2 SW 9.8 1.5 7.2
08:21 11.0 11.0 100 994.9 11.4 SW 11.4 1.5 7.2
08:22 11.0 11.0 100 994.8 9.8 SW 11.4 1.5 7.2
08:23 11.0 11.0 100 994.7 9.8 NE 11.4 0.0 7.2
08:24 11.0 11.0 100 995.0 11.4 WNW 11.4 0.8 7.3
08:25 11.0 11.0 100 994.8 10.7 NW 11.4 0.8 7.3
08:26 11.0 11.0 100 995.0 10.7 WSW 11.4 0.8 7.3
08:27 11.0 11.0 100 994.9 9.2 SW 11.4 0.8 7.3
08:28 11.0 11.0 100 995.0 12.1 NW 12.1 0.8 7.3
08:29 10.9 10.9 100 995.0 9.8 NW 12.1 0.0 7.3
08:30 10.9 10.9 100 994.9 8.3 NW 12.1 0.0 7.3
08:31 10.9 10.9 100 995.0 7.6 NW 12.1 0.0 7.3
08:32 10.9 10.9 100 994.9 10.7 NW 12.1 0.0 7.3
08:33 10.9 10.9 100 995.2 10.7 NW 12.1 0.0 7.3
08:34 10.9 10.9 100 995.1 7.6 WNW 12.1 0.0 7.3
08:35 10.9 10.9 100 995.0 9.2 NW 12.1 0.0 7.3
08:36 10.9 10.9 100 995.1 13.0 SW 13.0 0.0 7.3
08:37 10.9 10.9 100 995.3 13.0 W 13.0 0.0 7.3
08:38 10.9 10.9 100 995.2 10.7 SW 13.0 0.0 7.3
08:39 10.9 10.9 100 995.4 12.1 NW 13.0 1.5 7.4
08:40 10.9 10.9 100 995.3 15.9 NW 22.1 1.5 7.4
08:41 10.9 10.9 100 995.4 12.1 W 22.1 1.5 7.5
08:42 10.8 10.8 100 995.3 13.6 N 22.1 2.3 7.5
08:43 10.8 10.8 100 995.3 11.4 N 22.1 2.3 7.5
08:44 10.8 10.8 100 995.0 12.1 W 22.1 0.8 7.5
08:45 10.8 10.8 100 995.2 10.7 NW 22.1 0.8 7.5
08:46 10.8 10.8 100 995.4 10.7 SSW 22.1 0.8 7.5
08:47 10.7 10.7 100 995.5 15.2 WNW 22.1 0.0 7.5
08:48 10.7 10.7 100 995.5 15.2 WNW 22.1 0.0 7.5
08:49 10.7 10.7 100 995.5 13.0 N 22.1 0.0 7.5
08:50 10.7 10.7 100 995.2 9.8 NE 15.9 0.0 7.5
08:51 10.7 10.7 100 995.3 9.8 NW 15.2 0.0 7.5
08:52 10.7 10.7 100 995.4 12.1 NW 15.2 0.0 7.5
08:53 10.7 10.7 100 995.6 12.1 NE 15.2 0.0 7.5
08:54 10.7 10.7 100 995.4 9.2 NE 15.2 0.0 7.5
08:55 10.7 10.7 100 995.7 11.4 SW 15.2 0.0 7.5
08:56 10.7 10.7 100 995.6 8.3 NW 15.2 0.0 7.5
08:57 10.7 10.7 100 995.5 9.2 NW 15.2 0.0 7.5
08:58 10.6 10.6 100 995.7 8.3 SW 13.0 0.0 7.5
08:59 10.6 10.6 100 995.7 9.8 NW 12.1 0.0 7.5
09:00 10.6 10.6 100 995.6 9.8 SW 12.1 0.0 7.5
09:01 10.6 10.6 100 995.6 9.8 SW 12.1 0.0 7.5
09:02 10.6 10.6 100 995.8 9.8 SW 12.1 0.0 7.5
09:03 10.6 10.6 100 995.8 9.8 SW 12.1 0.0 7.5
09:04 10.6 10.6 100 995.9 9.8 SW 11.4 0.0 7.5
09:05 10.6 10.6 100 995.8 9.8 SW 11.4 0.0 7.5
09:06 10.6 10.6 100 995.6 10.7 W 10.7 0.0 7.5
09:07 10.5 10.5 100 996.0 8.3 WNW 10.7 0.0 7.5
09:08 10.5 10.5 100 995.8 13.0 WNW 13.0 0.0 7.5
09:09 10.5 10.5 100 995.7 12.1 SW 13.0 0.0 7.5
09:10 10.5 10.5 100 996.0 9.8 SW 13.0 0.0 7.5
09:11 10.5 10.5 100 995.7 9.8 NE 13.0 0.0 7.5
09:12 10.5 10.5 100 996.0 9.8 NW 13.0 0.0 7.5
09:13 10.5 10.5 100 995.9 8.3 SW 13.0 0.0 7.5
09:14 10.5 10.5 100 996.1 8.3 NW 13.0 0.0 7.5
09:15 10.5 10.5 100 996.1 11.4 SW 13.0 0.0 7.5
09:16 10.5 10.5 100 996.0 12.1 NE 13.0 0.0 7.5
09:17 10.5 10.5 100 996.0 8.3 NW 13.0 0.0 7.5
09:18 10.5 10.5 100 996.0 8.3 NW 13.0 0.0 7.5
09:19 10.5 10.5 100 996.0 8.3 W 12.1 0.0 7.5
09:20 10.5 10.5 100 996.0 9.2 NW 12.1 0.0 7.5
09:21 10.5 10.5 100 996.2 9.2 SW 12.1 0.0 7.5
09:22 10.5 10.5 100 996.1 10.7 SW 12.1 0.0 7.5
09:23 10.5 10.5 100 996.2 6.9 SW 12.1 0.0 7.5
09:24 10.5 10.5 100 995.7 9.8 NW 12.1 0.0 7.5
09:25 10.5 10.5 100 996.0 12.1 NW 12.1 0.0 7.5
09:26 10.6 10.6 100 996.1 9.2 NW 12.1 0.0 7.5
09:27 10.6 10.6 100 996.0 8.3 W 12.1 0.0 7.5
09:28 10.6 10.6 100 995.9 8.3 SW 12.1 0.0 7.5
09:29 10.6 10.6 100 996.1 9.2 SW 12.1 0.0 7.5
09:30 10.6 10.6 100 996.0 7.6 NW 12.1 0.0 7.5
09:31 10.6 10.6 100 996.1 7.6 NW 12.1 0.0 7.5
09:32 10.6 10.6 100 996.0 9.8 NW 12.1 0.0 7.5
09:33 10.6 10.6 100 996.2 10.7 NW 12.1 0.0 7.5
09:34 10.6 10.6 100 996.2 10.7 NW 12.1 0.0 7.5
09:35 10.6 10.6 100 996.2 10.7 SW 12.1 0.0 7.5
09:36 10.7 10.7 100 996.1 7.6 NW 11.4 0.0 7.5
09:37 10.7 10.7 100 996.2 6.9 WSW 11.4 0.0 7.5
09:38 10.7 10.7 100 996.3 7.6 NW 11.4 0.0 7.5
09:39 10.7 10.7 100 996.2 9.2 SW 11.4 0.0 7.5
09:40 10.7 10.7 100 996.2 9.2 W 10.7 0.0 7.5
09:41 10.8 10.8 100 996.1 8.3 SW 10.7 0.0 7.5
09:42 10.8 10.8 100 996.4 7.6 NW 10.7 0.0 7.5
09:43 10.8 10.8 100 996.2 7.6 SW 10.7 0.0 7.5
09:44 10.8 10.8 100 996.2 7.6 SW 10.7 0.0 7.5
09:45 10.9 10.9 100 996.2 6.9 NW 9.2 0.0 7.5
09:46 10.9 10.9 100 996.4 8.3 NW 9.2 0.0 7.5
09:47 10.9 10.9 100 996.4 7.6 NW 9.2 0.0 7.5
09:48 11.0 11.0 100 996.3 8.3 WSW 9.2 0.0 7.5
09:49 11.0 10.9 99 996.4 8.3 NW 9.2 0.0 7.5
09:50 11.0 10.9 99 996.4 10.7 SW 10.7 0.0 7.5
09:51 11.0 10.9 99 996.5 9.2 NW 10.7 0.0 7.5
09:52 11.0 10.9 99 996.4 10.7 SW 10.7 0.0 7.5
09:53 11.1 11.0 99 996.5 8.3 NW 10.7 0.0 7.5
09:54 11.1 11.0 99 996.5 9.8 SW 10.7 0.0 7.5
09:55 11.1 11.0 99 996.5 8.3 SW 10.7 0.0 7.5
09:56 11.2 11.1 99 996.4 6.0 ENE 10.7 0.0 7.5
09:57 11.3 11.2 99 996.5 6.9 NW 10.7 0.0 7.5
09:58 11.4 11.3 99 996.6 7.6 NE 10.7 0.0 7.5
09:59 11.5 11.4 99 996.5 7.6 NW 10.7 0.0 7.5
10:00 11.5 11.4 99 996.5 7.6 SW 10.7 0.0 7.5
10:01 11.5 11.4 99 996.5 7.6 SW 10.7 0.0 7.5
10:02 11.5 11.4 99 996.6 7.6 SW 10.7 0.0 7.5
10:03 11.5 11.4 99 996.6 7.6 SW 9.8 0.0 7.5
10:04 11.5 11.4 99 996.6 7.6 SW 9.8 0.0 7.5
10:05 11.5 11.4 99 996.7 7.6 SW 8.3 0.0 7.5
10:06 11.6 11.5 99 996.7 11.4 NW 11.4 0.0 7.5
10:07 11.6 11.5 99 996.7 11.4 NW 11.4 0.0 7.5
10:08 11.6 11.5 99 996.6 9.8 W 11.4 0.0 7.5
10:09 11.6 11.5 99 997.0 9.2 SW 11.4 0.0 7.5
10:10 11.6 11.5 99 996.6 8.3 NE 11.4 0.0 7.5
10:11 11.6 11.5 99 996.7 9.2 SW 11.4 0.0 7.5
10:12 11.6 11.5 99 996.8 7.6 SSE 11.4 0.0 7.5
10:13 11.5 11.4 99 996.7 9.2 W 11.4 0.0 7.5
10:14 11.5 11.4 99 996.6 6.9 SW 11.4 0.0 7.5
10:15 11.5 11.4 99 996.8 6.0 W 11.4 0.0 7.5
10:16 11.5 11.4 99 996.7 9.8 NW 11.4 0.0 7.5
10:17 11.5 11.4 99 996.7 7.6 NE 9.8 0.0 7.5
10:18 11.5 11.4 99 996.8 9.2 WSW 9.8 0.0 7.5
10:19 11.5 11.4 99 996.8 9.2 WSW 9.8 0.0 7.5
10:20 11.5 11.4 99 996.8 9.8 SW 11.4 0.0 7.5
10:21 11.5 11.4 99 996.7 6.0 NW 11.4 0.0 7.5
10:22 11.5 11.4 99 996.7 6.9 SW 11.4 0.0 7.5
10:23 11.6 11.5 99 996.9 9.2 NW 11.4 0.0 7.5
10:24 11.6 11.5 99 997.0 7.6 SW 11.4 0.0 7.5
10:25 11.6 11.5 99 996.7 9.8 SW 11.4 0.0 7.5
10:26 11.6 11.5 99 996.9 6.0 W 11.4 0.0 7.5
10:27 11.6 11.5 99 996.9 9.8 SW 11.4 0.0 7.5
10:28 11.6 11.5 99 997.0 10.7 SW 11.4 0.0 7.5
10:29 11.6 11.5 99 996.9 6.9 WSW 11.4 0.0 7.5
10:30 11.7 11.6 99 996.9 9.2 W 10.7 0.0 7.5
10:31 11.7 11.6 99 996.8 12.1 W 12.1 0.0 7.5
10:32 11.7 11.6 99 997.0 9.8 SW 12.1 0.0 7.5
10:33 11.7 11.6 99 997.0 11.4 NW 12.1 0.0 7.5
10:34 11.7 11.6 99 997.1 9.2 NW 12.1 0.0 7.5
10:35 11.7 11.6 99 997.1 9.2 NW 12.1 0.0 7.5
10:36 11.8 11.7 99 997.1 12.1 NW 12.1 0.0 7.5
10:37 11.8 11.7 99 997.0 12.1 W 12.1 0.0 7.5
10:38 11.9 11.8 99 997.0 9.2 W 12.1 0.0 7.5
10:39 11.9 11.8 99 997.4 6.9 W 12.1 0.0 7.5
10:40 12.0 11.9 99 997.0 9.2 SW 12.1 0.0 7.5
10:41 12.0 11.9 99 997.2 9.8 W 12.1 0.0 7.5
10:42 12.0 11.9 99 997.2 9.8 W 12.1 0.0 7.5
10:43 12.0 11.9 99 997.2 7.6 SW 12.1 0.0 7.5
10:44 12.1 12.0 99 997.3 11.4 SW 12.1 0.0 7.5
10:45 12.2 12.1 99 997.2 14.5 SW 14.5 0.0 7.5
10:46 12.2 12.1 99 997.1 14.5 SW 14.5 0.0 7.5
10:47 12.2 12.1 99 997.1 12.1 SW 14.5 0.0 7.5
10:48 12.2 12.1 99 997.3 12.1 NW 14.5 0.0 7.5
10:49 12.2 12.1 99 997.1 13.6 SW 14.5 0.0 7.5
10:50 12.2 12.1 99 997.2 9.8 W 14.5 0.0 7.5
10:51 12.2 12.1 99 997.0 9.8 W 14.5 0.0 7.5
10:52 12.2 12.1 99 997.1 9.8 W 14.5 0.0 7.5
10:53 12.2 12.1 99 997.3 11.4 SW 14.5 0.0 7.5
10:54 12.2 12.1 99 997.2 9.8 W 14.5 0.0 7.5
10:55 12.3 12.2 99 997.1 9.2 SW 14.5 0.0 7.5
10:56 12.3 12.0 98 997.3 12.1 NW 14.5 0.0 7.5
10:57 12.3 12.0 98 997.3 11.4 SW 13.6 0.0 7.5
10:58 12.4 12.1 98 997.2 9.2 SW 13.6 0.0 7.5
10:59 12.4 12.1 98 997.2 9.2 SW 13.6 0.0 7.5
11:00 12.4 12.1 98 997.3 13.0 SW 13.0 0.0 7.5
11:01 12.4 12.1 98 997.3 13.0 SW 13.0 0.0 7.5
11:02 12.4 12.1 98 997.1 13.0 SW 13.0 0.0 7.5
11:03 12.4 12.1 98 997.4 13.0 SW 13.0 0.0 7.5
11:04 12.4 12.1 98 997.3 13.0 SW 13.0 0.0 7.5
11:05 12.4 11.8 96 997.4 13.0 S 13.0 0.0 7.5
11:06 12.4 11.8 96 997.3 13.0 S 13.0 0.0 7.5
11:07 12.4 11.6 95 997.1 12.1 SW 13.0 0.0 7.5
11:08 12.4 11.6 95 997.2 9.8 N 13.0 0.0 7.5
11:09 12.4 11.6 95 997.1 11.4 SW 13.0 0.0 7.5
11:10 12.4 11.6 95 997.2 11.4 SW 13.0 0.0 7.5
11:11 12.4 11.5 94 997.4 9.8 SW 13.0 0.0 7.5
11:12 12.5 11.1 91 997.4 9.8 W 13.0 0.0 7.5
11:13 12.5 11.1 91 997.2 9.8 W 13.0 0.0 7.5
11:14 12.6 11.2 91 997.4 9.8 SW 13.0 0.0 7.5
11:15 12.6 11.0 90 997.6 9.8 SW 13.0 0.0 7.5
11:16 12.7 11.1 90 997.3 8.3 W 13.0 0.0 7.5
11:17 12.8 11.2 90 997.4 9.8 W 12.1 0.0 7.5
11:18 12.8 11.2 90 997.3 9.8 W 11.4 0.0 7.5
11:19 12.9 11.3 90 997.3 8.3 SW 11.4 0.0 7.5
11:20 13.0 11.2 89 997.4 9.2 SW 9.8 0.0 7.5
11:21 13.2 11.4 89 997.4 13.6 SW 13.6 0.0 7.5
11:22 13.2 11.4 89 997.4 9.2 SW 13.6 0.0 7.5
11:23 13.2 11.4 89 997.2 11.4 W 13.6 0.0 7.5
11:24 13.2 11.4 89 997.5 11.4 W 13.6 0.0 7.5
11:25 13.3 11.4 88 997.2 10.7 SW 13.6 0.0 7.5
11:26 13.3 11.4 88 997.3 10.7 SW 13.6 0.0 7.5
11:27 13.3 11.4 88 997.5 11.4 W 13.6 0.0 7.5
11:28 13.3 11.2 87 997.6 11.4 WSW 13.6 0.0 7.5
11:29 13.3 11.2 87 997.3 13.6 SW 13.6 0.0 7.5
11:30 13.3 11.2 87 997.6 13.6 SW 13.6 0.0 7.5
11:31 13.3 11.0 86 997.3 13.6 W 13.6 0.0 7.5
11:32 13.3 11.0 86 997.5 9.8 W 13.6 0.0 7.5
11:33 13.3 11.0 86 997.3 9.8 W 13.6 0.0 7.5
11:34 13.3 11.0 86 997.5 9.8 W 13.6 0.0 7.5
11:35 13.3 11.0 86 997.5 9.8 W 13.6 0.0 7.5
11:36 13.4 10.9 85 997.7 9.8 SW 13.6 0.0 7.5
11:37 13.5 11.0 85 997.6 11.4 SW 13.6 0.0 7.5
11:38 13.5 11.0 85 997.6 11.4 SW 13.6 0.0 7.5
11:39 13.5 11.0 85 997.5 10.7 W 13.6 0.0 7.5
11:40 13.6 11.0 84 997.2 9.8 S 13.6 0.0 7.5
11:41 13.6 11.0 84 997.6 10.7 SW 11.4 0.0 7.5
11:42 13.7 11.1 84 997.6 13.6 SW 13.6 0.0 7.5
11:43 13.7 11.1 84 997.6 13.6 SW 13.6 0.0 7.5
11:44 13.7 10.9 83 997.8 12.1 W 13.6 0.0 7.5
11:45 13.8 11.0 83 997.6 12.1 SW 13.6 0.0 7.5
11:46 13.8 11.0 83 997.6 12.1 SW 13.6 0.0 7.5
11:47 13.8 11.0 83 997.7 12.1 W 13.6 0.0 7.5
11:48 13.8 10.8 82 997.6 9.2 W 13.6 0.0 7.5
11:49 13.8 10.8 82 997.8 9.8 SW 13.6 0.0 7.5
11:50 13.8 10.8 82 997.5 9.8 SW 13.6 0.0 7.5
11:51 13.9 10.9 82 997.9 13.0 SW 13.6 0.0 7.5
11:52 13.9 10.7 81 997.6 11.4 W 13.6 0.0 7.5
11:53 13.9 10.7 81 997.6 10.7 S 13.6 0.0 7.5
11:54 13.8 10.6 81 997.7 9.8 SW 13.0 0.0 7.5
11:55 13.8 10.6 81 997.8 12.1 SW 13.0 0.0 7.5
11:56 13.7 10.5 81 997.9 11.4 SW 13.0 0.0 7.5
11:57 13.5 10.3 81 998.0 13.6 SW 14.5 0.0 7.5
11:58 13.4 10.2 81 997.8 9.8 SW 14.5 0.0 7.5
11:59 13.3 10.1 81 997.8 10.7 SW 14.5 0.0 7.5
12:00 13.3 10.1 81 998.0 10.7 SW 14.5 0.0 7.5
12:01 13.3 10.1 81 997.9 10.7 SW 14.5 0.0 7.5
12:02 13.3 10.1 81 997.9 10.7 SW 14.5 0.0 7.5
12:03 12.9 9.5 80 997.8 11.4 SW 14.5 0.0 7.5
12:04 12.8 9.4 80 997.9 8.3 SW 14.5 0.0 7.5
12:05 12.8 9.4 80 997.6 9.2 SW 14.5 0.0 7.5
12:06 12.7 9.3 80 997.7 11.4 SW 14.5 0.0 7.5
12:07 12.7 9.3 80 997.8 8.3 WSW 14.5 0.0 7.5
12:08 12.7 9.3 80 997.8 11.4 SW 11.4 0.0 7.5
12:09 12.6 9.2 80 997.9 9.8 NW 11.4 0.0 7.5
12:10 12.6 9.4 81 997.9 6.9 SW 11.4 0.0 7.5
12:11 12.6 9.4 81 997.9 8.3 SW 11.4 0.0 7.6
12:12 12.6 9.4 81 997.9 8.3 SW 11.4 0.8 7.6
12:13 12.6 9.4 81 997.8 9.8 S 11.4 0.8 7.6
12:14 12.6 9.4 81 997.9 9.8 SW 11.4 0.8 7.6
12:15 12.5 9.3 81 997.8 9.2 SW 11.4 0.8 7.6
12:16 12.5 9.3 81 997.9 9.8 SW 11.4 0.8 7.6
12:17 12.5 9.3 81 997.8 13.6 W 13.6 0.0 7.6
12:18 12.5 9.3 81 997.8 13.6 W 13.6 0.0 7.6
12:19 12.5 9.3 81 997.9 13.6 W 13.6 0.0 7.6
12:20 12.4 9.8 84 997.9 11.4 SW 13.6 0.0 7.6
12:21 12.4 9.8 84 998.1 9.8 SW 13.6 0.0 7.6
12:22 12.4 9.8 84 997.9 9.8 SW 13.6 0.0 7.6
12:23 12.4 9.8 84 998.1 13.0 SW 13.6 0.0 7.6
12:24 12.5 9.3 81 998.2 10.7 SE 13.6 0.0 7.6
12:25 12.5 9.3 81 998.0 9.2 SW 13.6 0.0 7.6
12:26 12.6 9.4 81 997.9 9.8 SW 13.6 0.0 7.6
12:27 12.7 9.5 81 998.1 10.7 SW 13.6 0.0 7.6
12:29 12.9 9.9 82 997.8 9.2 SW 13.6 0.0 7.6
12:30 13.1 10.1 82 997.9 7.6 SW 13.0 0.0 7.6
12:31 13.1 10.1 82 997.8 7.6 SW 13.0 0.0 7.6
12:32 13.2 10.2 82 997.8 9.8 SW 13.0 0.0 7.6
12:33 13.3 10.3 82 997.9 10.7 SW 13.0 0.0 7.6
12:34 13.3 10.3 82 997.7 10.7 SW 10.7 0.0 7.6
12:35 13.4 10.2 81 998.0 9.2 SSW 10.7 0.0 7.6
12:36 13.4 10.2 81 997.9 9.2 SSW 10.7 0.0 7.6
12:37 13.4 10.2 81 997.9 9.2 S 10.7 0.0 7.6
12:38 13.4 10.2 81 997.8 9.2 S 10.7 0.0 7.6
12:39 13.4 10.2 81 997.8 11.4 SW 11.4 0.0 7.6
12:40 13.4 10.0 80 997.8 11.4 SW 11.4 0.0 7.6
12:41 13.4 10.0 80 997.7 9.8 SW 11.4 0.0 7.6
12:42 13.4 10.0 80 997.8 11.4 SW 11.4 0.0 7.6
12:43 13.4 10.0 80 997.9 9.2 W 11.4 0.0 7.6
12:44 13.4 10.0 80 998.0 8.3 SW 11.4 0.0 7.6
12:45 13.4 10.0 80 997.9 8.3 S 11.4 0.0 7.6
12:46 13.3 9.9 80 998.0 14.5 SW 14.5 0.0 7.6
12:47 13.3 9.9 80 998.1 14.5 SW 14.5 0.0 7.6
12:48 13.4 10.0 80 997.7 15.2 SW 15.2 0.0 7.6
12:49 13.5 10.1 80 997.8 9.2 W 15.2 0.0 7.6
12:50 13.5 10.1 80 998.0 9.2 W 15.2 0.0 7.6
12:51 13.6 10.2 80 998.0 9.2 SW 15.2 0.0 7.6
12:52 13.7 10.5 81 997.7 10.7 W 15.2 0.0 7.6
12:53 13.7 10.5 81 997.9 15.2 SW 15.2 0.0 7.6
12:54 13.7 10.5 81 997.9 15.2 SW 15.2 0.0 7.6
12:55 13.9 10.7 81 997.9 12.1 SW 15.2 0.0 7.6
12:56 14.0 10.8 81 997.9 12.1 SW 15.2 0.0 7.6
12:57 14.0 10.8 81 997.8 12.1 SW 15.2 0.0 7.6
12:58 14.1 10.9 81 998.0 13.6 SW 15.2 0.0 7.6
12:59 14.1 10.9 81 998.2 13.6 SW 15.2 0.0 7.6
13:00 14.2 10.8 80 998.1 16.8 S 16.8 0.0 7.6
13:01 14.2 10.8 80 997.9 16.8 S 16.8 0.0 7.6
13:02 14.2 10.8 80 997.7 16.8 S 16.8 0.0 7.6
13:03 14.3 10.5 78 997.8 12.1 SW 16.8 0.0 7.6
13:04 14.4 10.6 78 997.9 16.8 SW 16.8 0.0 7.6
13:05 14.4 10.4 77 997.9 13.6 SW 16.8 0.0 7.6
13:06 14.3 10.1 76 997.8 15.2 SW 16.8 0.0 7.6
13:07 14.4 10.2 76 997.9 15.2 W 16.8 0.0 7.6
13:08 14.4 10.2 76 997.9 14.5 S 16.8 0.0 7.6
13:09 14.4 10.0 75 997.7 13.0 SW 16.8 0.0 7.6
13:10 14.4 10.0 75 997.7 13.0 SW 16.8 0.0 7.6
13:11 14.4 10.0 75 997.7 11.4 SW 16.8 0.0 7.6
13:12 14.4 10.0 75 997.6 11.4 SW 16.8 0.0 7.6
13:13 14.4 10.0 75 997.8 10.7 SW 16.8 0.0 7.6
13:14 14.5 10.1 75 997.7 13.6 SW 15.2 0.0 7.6
13:15 14.5 10.1 75 997.9 13.6 SW 15.2 0.0 7.6
13:16 14.6 10.2 75 997.6 11.4 SW 15.2 0.0 7.6
13:17 14.6 10.0 74 997.8 15.9 S 15.9 0.0 7.6
13:18 14.5 9.9 74 997.9 15.2 SW 15.9 0.0 7.6
13:19 14.5 9.9 74 997.8 15.2 S 15.9 0.0 7.6
13:20 14.4 9.8 74 997.8 9.8 S 15.9 0.0 7.6
13:21 14.3 9.7 74 997.6 13.6 SW 15.9 0.0 7.6
13:22 14.3 9.7 74 997.9 15.2 SW 15.9 0.0 7.6
13:23 14.3 9.7 74 998.0 13.0 SW 15.9 0.0 7.6
13:24 14.3 9.7 74 997.6 13.6 W 15.9 0.0 7.6
13:25 14.2 9.6 74 997.7 14.5 SW 15.9 0.0 7.6
13:26 14.2 9.6 74 997.6 14.5 SW 15.9 0.0 7.6
13:27 14.2 9.6 74 997.6 15.2 SW 15.9 0.0 7.6
13:28 14.3 9.7 74 997.8 14.5 S 15.9 0.0 7.6
13:29 14.2 9.6 74 997.8 14.5 W 15.9 0.0 7.6
13:30 14.2 9.6 74 997.6 14.5 SSW 15.9 0.0 7.6
13:31 14.2 9.6 74 997.9 15.2 S 15.9 0.0 7.6
13:32 14.2 9.6 74 997.7 14.5 SW 15.9 0.0 7.6
13:33 14.1 9.5 74 997.5 15.2 SW 15.9 0.0 7.6
13:34 14.1 9.5 74 997.9 14.5 SSW 15.2 0.0 7.6
13:35 14.0 9.4 74 997.6 9.8 SW 15.2 0.0 7.6
13:36 14.0 9.4 74 997.7 14.5 SW 15.2 0.0 7.6
13:37 14.0 9.4 74 997.7 14.5 SW 15.2 0.0 7.6
13:38 14.1 9.5 74 997.6 15.2 SW 15.2 0.0 7.6
13:39 14.1 9.5 74 997.6 13.6 SW 15.2 0.0 7.6
13:40 14.2 9.8 75 997.6 13.0 SW 15.2 0.0 7.6
13:41 14.3 9.9 75 997.6 11.4 SW 15.2 0.0 7.6
13:42 14.4 10.0 75 997.8 15.2 S 15.2 0.0 7.6
13:43 14.4 10.0 75 997.6 13.0 SW 15.2 0.0 7.6
13:44 14.3 9.9 75 997.5 10.7 SW 15.2 0.0 7.6
13:45 14.2 9.6 74 997.7 11.4 W 15.2 0.0 7.6
13:46 14.1 9.5 74 997.5 15.2 SW 15.2 0.0 7.6
13:47 14.0 9.4 74 997.6 15.2 SW 15.2 0.0 7.6
13:48 13.9 9.3 74 997.5 12.1 SW 15.2 0.0 7.6
13:49 13.8 9.3 74 997.7 9.8 SW 15.2 0.0 7.6
13:50 13.8 9.3 74 997.7 11.4 S 15.2 0.0 7.6
13:51 13.8 9.3 74 997.7 11.4 S 15.2 0.0 7.6
13:52 13.6 9.3 75 997.6 9.8 SW 15.2 0.0 7.6
13:53 13.6 9.3 75 997.6 14.5 SSW 15.2 0.0 7.6
13:54 13.5 9.2 75 997.7 11.4 S 15.2 0.0 7.6
13:55 13.5 9.4 76 997.7 10.7 S 15.2 0.8 7.6
13:56 13.3 9.2 76 997.7 9.8 SW 15.2 1.5 7.7
13:57 13.3 9.4 77 997.7 10.7 SW 15.2 1.5 7.7
13:58 13.3 9.4 77 997.7 10.7 SW 14.5 1.5 7.7
14:00 13.0 9.4 79 997.5 11.4 SW 14.5 1.5 7.7
14:01 13.0 9.4 79 997.5 11.4 SW 14.5 0.8 7.7
14:02 12.8 9.3 79 997.7 10.7 W 14.5 0.8 7.9
14:03 12.7 9.2 79 997.7 8.3 SW 14.5 3.0 8.0
14:04 12.6 9.1 79 997.6 7.6 W 14.5 4.5 8.1
14:05 12.6 9.2 80 997.6 8.3 SW 14.5 3.8 8.1
14:06 12.7 9.5 81 997.4 8.3 WSW 13.6 3.8 8.1
14:07 12.7 9.7 82 997.6 10.7 S 13.6 3.8 8.1
14:08 12.8 9.8 82 997.4 9.8 WSW 13.6 1.5 8.1
14:09 12.8 10.0 83 997.3 7.6 SW 13.6 0.0 8.1
14:10 12.9 10.1 83 997.5 9.8 SW 11.4 0.0 8.1
14:11 13.0 10.4 84 997.4 10.7 SW 11.4 0.0 8.1
14:12 13.0 10.4 84 997.4 10.7 SW 11.4 0.0 8.1
14:13 13.1 10.5 84 997.4 10.7 SW 11.4 0.0 8.1
14:14 13.1 10.5 84 997.4 11.4 S 11.4 0.8 8.1
14:15 13.2 10.6 84 997.3 11.4 S 11.4 0.8 8.1
14:16 13.3 10.7 84 997.4 10.7 SW 13.0 0.8 8.1
14:17 13.3 10.5 83 997.3 10.7 SW 13.0 0.8 8.1
14:18 13.4 10.6 83 997.3 6.9 SW 13.0 0.8 8.1
14:19 13.5 10.9 84 997.4 9.2 SW 13.0 0.0 8.1
14:20 13.6 11.0 84 997.4 9.2 SW 13.0 0.0 8.1
14:21 13.8 11.3 85 997.4 9.2 WSW 13.0 0.0 8.1
14:22 13.8 11.3 85 997.4 8.3 S 13.0 0.0 8.1
14:23 13.9 11.4 85 997.3 8.3 SW 13.0 0.0 8.1
14:24 13.9 11.4 85 997.5 9.8 SW 13.0 0.0 8.1
14:25 13.9 11.2 84 997.6 12.1 SW 13.0 0.0 8.1
14:26 13.8 11.1 84 997.3 10.7 SW 12.1 0.0 8.1
14:27 13.8 11.1 84 997.3 10.7 SW 12.1 0.0 8.1
14:28 13.7 10.9 83 997.5 11.4 S 12.1 0.0 8.1
14:29 13.6 10.8 83 997.2 9.2 S 12.1 0.0 8.1
14:30 13.6 10.8 83 997.1 13.6 SW 13.6 0.0 8.1
14:31 13.5 10.5 82 997.4 10.7 S 13.6 0.0 8.1
14:32 13.5 10.5 82 997.4 19.7 S 19.7 0.0 8.1
14:33 13.4 10.4 82 997.4 15.2 SW 19.7 0.0 8.1
14:34 13.4 10.4 82 997.6 12.1 SSW 19.7 0.0 8.1
14:35 13.4 10.4 82 997.5 12.1 SW 19.7 0.0 8.1
14:36 13.4 10.2 81 997.4 13.0 SW 19.7 0.0 8.1
14:37 13.4 10.2 81 997.4 12.1 W 19.7 0.0 8.1
14:38 13.4 10.2 81 997.1 15.2 S 19.7 0.0 8.1
14:39 13.4 10.2 81 997.3 14.5 SW 19.7 0.0 8.1
14:40 13.4 10.2 81 997.2 11.4 SW 19.7 0.0 8.1
14:41 13.3 10.1 81 997.2 15.2 SW 19.7 0.0 8.1
14:42 13.3 10.1 81 997.1 15.2 S 19.7 0.0 8.1
14:43 13.3 10.1 81 997.2 9.8 SW 15.2 0.0 8.1
14:44 13.3 10.1 81 997.3 13.0 SW 15.2 0.0 8.1
14:45 13.3 10.1 81 997.2 14.5 SW 15.2 0.0 8.1
14:46 13.3 10.1 81 997.3 13.6 SW 15.2 0.0 8.1
14:47 13.3 10.1 81 997.4 12.1 SW 15.2 0.0 8.1
14:48 13.3 9.9 80 997.2 14.5 S 15.2 0.0 8.1
14:49 13.3 9.9 80 997.3 11.4 SW 15.2 0.0 8.1
14:50 13.3 9.9 80 997.0 12.1 SW 15.2 0.0 8.1
14:51 13.3 9.9 80 997.1 10.7 SW 15.2 0.0 8.1
14:52 13.3 10.1 81 997.2 12.1 SW 15.2 0.0 8.1
14:53 13.4 10.2 81 997.0 13.0 S 14.5 0.0 8.1
14:54 13.4 10.2 81 997.0 13.0 S 14.5 0.0 8.1
14:55 13.4 10.2 81 997.3 13.6 S 14.5 0.0 8.1
14:56 13.4 10.2 81 997.2 13.0 S 14.5 0.0 8.1
14:57 13.3 9.9 80 997.0 13.0 SW 14.5 0.0 8.1
14:58 13.3 9.9 80 997.2 16.8 SW 16.8 0.0 8.1
14:59 13.3 9.9 80 997.2 13.6 SW 16.8 0.0 8.1
15:00 13.4 10.0 80 997.1 13.6 W 16.8 0.0 8.1
15:01 13.4 10.0 80 997.2 13.6 W 16.8 0.0 8.1
15:02 13.4 10.0 80 996.9 13.6 W 16.8 0.0 8.1
15:03 13.6 10.4 81 997.2 15.9 S 16.8 0.0 8.1
15:04 13.7 10.5 81 997.0 14.5 SSW 16.8 0.0 8.1
15:05 13.7 10.3 80 997.0 13.0 SW 16.8 0.0 8.1
15:06 13.8 10.4 80 997.1 13.0 SW 16.8 0.0 8.1
15:07 13.8 10.4 80 997.3 14.5 S 16.8 0.0 8.1
15:08 13.8 10.4 80 997.1 13.0 S 16.8 0.0 8.1
15:09 13.8 10.4 80 997.1 11.4 S 15.9 0.0 8.1
15:10 13.9 10.5 80 997.2 15.2 SW 15.9 0.0 8.1
15:11 13.8 10.4 80 997.0 14.5 SSW 15.9 0.0 8.1
15:12 13.8 10.4 80 997.1 15.9 S 15.9 0.0 8.1
15:13 13.8 10.4 80 997.1 15.9 SW 15.9 0.0 8.1
15:14 13.8 10.4 80 997.2 16.8 S 16.8 0.0 8.1
15:15 13.7 10.3 80 997.0 15.9 SW 16.8 0.0 8.1
15:16 13.7 10.3 80 996.9 15.2 S 16.8 0.0 8.1
15:17 13.6 10.2 80 997.2 12.1 SSE 16.8 0.0 8.1
15:18 13.6 10.2 80 997.1 12.1 SW 16.8 0.0 8.1
15:19 13.6 10.2 80 996.8 10.7 S 16.8 0.0 8.1
15:20 13.6 10.2 80 996.9 10.7 S 16.8 0.0 8.1
15:21 13.6 10.2 80 997.2 13.6 SW 16.8 0.0 8.1
15:22 13.6 10.2 80 997.2 13.6 SW 16.8 0.0 8.1
15:23 13.6 10.2 80 996.9 14.5 W 16.8 0.0 8.1
15:24 13.6 10.4 81 997.0 13.0 S 16.8 0.0 8.1
15:25 13.6 10.4 81 996.9 10.7 SW 15.9 0.0 8.1
15:26 13.6 10.4 81 997.1 15.9 SW 15.9 0.0 8.1
15:27 13.6 10.4 81 997.0 17.4 S 17.4 0.0 8.1
15:28 13.6 10.4 81 997.1 16.8 SW 17.4 0.0 8.1
15:29 13.5 10.3 81 997.3 16.8 S 17.4 0.0 8.1
15:30 13.5 10.3 81 997.0 15.2 SW 17.4 0.0 8.1
15:31 13.5 10.3 81 997.2 13.0 S 17.4 0.0 8.1
15:32 13.5 10.3 81 997.0 16.8 S 17.4 0.0 8.1
15:33 13.5 10.3 81 997.2 17.4 SW 17.4 0.0 8.1
15:34 13.6 10.4 81 997.1 17.4 S 17.4 0.0 8.1
15:35 13.6 10.4 81 997.2 15.2 S 17.4 0.0 8.1
15:36 13.6 10.4 81 997.3 16.8 S 17.4 0.0 8.1
15:37 13.6 10.4 81 996.9 13.6 S 17.4 0.0 8.1
15:38 13.6 10.4 81 996.9 12.1 S 17.4 0.0 8.1
15:39 13.6 10.4 81 996.9 12.1 S 17.4 0.0 8.1
15:40 13.6 10.2 80 996.9 11.4 S 17.4 0.0 8.1
15:41 13.6 10.2 80 997.1 11.4 S 17.4 0.0 8.1
15:42 13.4 10.0 80 997.1 12.1 S 17.4 0.0 8.1
15:43 13.4 10.0 80 997.1 14.5 S 17.4 0.0 8.1
15:44 13.2 9.6 79 997.2 14.5 S 17.4 0.0 8.1
15:45 13.2 9.6 79 997.1 14.5 S 16.8 0.0 8.1
15:46 13.1 9.5 79 997.3 10.7 S 16.8 0.0 8.1
15:47 13.0 9.4 79 997.1 10.7 S 15.9 0.0 8.1
15:48 12.9 9.4 79 997.1 12.1 SSW 14.5 0.0 8.1
15:49 12.9 9.4 79 997.1 13.0 SW 14.5 0.0 8.1
15:50 12.8 9.3 79 997.3 13.6 S 14.5 0.0 8.1
15:51 12.8 9.3 79 997.1 13.6 S 14.5 0.0 8.1
15:52 12.8 9.3 79 996.9 9.8 S 14.5 0.0 8.1
15:53 12.7 9.3 80 997.2 12.1 S 14.5 0.0 8.1
15:54 12.6 9.2 80 997.0 12.1 S 14.5 0.0 8.1
15:55 12.6 9.2 80 997.2 8.3 S 13.6 0.0 8.1
15:56 12.6 9.2 80 996.9 8.3 S 13.6 0.0 8.1
15:57 12.6 9.2 80 997.1 8.3 SW 13.6 0.0 8.1
15:58 12.6 9.2 80 997.1 8.3 SW 13.6 0.0 8.1
15:59 12.6 9.4 81 997.0 8.3 S 13.6 0.0 8.1
16:00 12.6 9.4 81 996.9 13.0 S 13.6 0.0 8.1
16:01 12.6 9.4 81 997.0 13.0 S 13.6 0.0 8.1
16:02 12.6 9.4 81 997.0 13.0 S 13.0 0.0 8.1
16:03 12.6 9.4 81 996.9 13.0 S 13.0 0.0 8.1
16:04 12.6 9.4 81 997.1 13.0 S 13.0 0.0 8.1
16:05 12.6 9.4 81 996.9 13.0 S 13.0 0.0 8.1
16:06 13.2 10.7 85 997.1 9.2 SW 13.6 0.0 8.1
16:07 13.3 10.8 85 996.9 17.4 S 17.4 0.0 8.1
16:08 13.4 11.1 86 996.9 16.8 S 17.4 0.0 8.1
16:09 13.4 10.9 85 996.9 12.1 SW 17.4 0.0 8.1
16:10 13.4 10.9 85 997.0 14.5 S 17.4 0.0 8.1
16:11 13.4 10.9 85 997.0 15.2 S 17.4 0.0 8.1
16:12 13.3 10.8 85 996.9 15.9 S 17.4 0.0 8.1
16:13 13.3 10.7 84 997.1 11.4 S 17.4 0.0 8.1
16:14 13.2 10.6 84 996.9 14.5 E 17.4 0.0 8.1
16:15 13.2 10.6 84 996.9 14.5 E 17.4 0.0 8.1
16:16 13.2 10.4 83 996.8 13.6 SW 17.4 0.0 8.1
16:17 13.2 10.4 83 996.9 16.8 SW 17.4 0.0 8.1
16:18 13.1 10.3 83 997.1 15.9 S 16.8 0.0 8.1
16:19 13.1 10.3 83 996.8 13.0 SSW 16.8 0.0 8.1
16:20 13.1 10.1 82 996.9 12.1 SW 16.8 0.0 8.1
16:21 13.1 10.1 82 996.9 12.1 S 16.8 0.0 8.1
16:22 13.1 10.1 82 996.9 12.1 S 16.8 0.0 8.1
16:23 13.0 10.0 82 997.0 17.4 S 19.0 0.0 8.1
16:24 13.0 10.0 82 997.0 14.5 S 19.0 0.0 8.1
16:25 12.9 9.9 82 996.8 11.4 SW 19.0 0.0 8.1
16:26 12.9 9.9 82 996.6 10.7 W 19.0 0.0 8.1
16:27 12.8 9.8 82 996.8 12.1 S 19.0 0.0 8.1
16:28 12.8 9.8 82 997.0 12.1 S 19.0 0.0 8.1
16:29 12.7 9.7 82 996.9 12.1 S 19.0 0.0 8.1
16:30 12.7 9.7 82 996.8 9.8 SW 19.0 0.0 8.1
16:31 12.7 9.5 81 996.7 13.0 S 19.0 0.0 8.1
16:32 12.6 9.4 81 996.9 13.0 S 19.0 0.0 8.1
16:33 12.6 9.4 81 996.9 10.7 S 17.4 0.0 8.1
16:34 12.5 9.3 81 996.6 13.6 S 14.5 0.0 8.1
16:35 12.5 9.3 81 997.0 9.2 S 14.5 0.0 8.1
16:36 12.5 9.3 81 997.1 11.4 S 14.5 0.0 8.1
16:37 12.4 9.8 84 996.8 9.2 SSW 14.5 0.0 8.1
16:38 12.4 9.8 84 996.8 9.2 SW 14.5 0.0 8.1
16:39 12.4 9.8 84 996.8 9.8 S 14.5 0.0 8.1
16:40 12.3 9.7 84 996.9 15.2 S 15.2 0.0 8.1
16:41 12.3 9.7 84 996.7 12.1 S 15.2 0.0 8.1
16:42 12.3 9.7 84 997.0 12.1 SW 15.2 0.0 8.1
16:43 12.2 9.6 84 996.7 10.7 S 15.2 0.0 8.1
16:44 12.2 9.6 84 996.7 10.7 S 15.2 0.0 8.1
16:45 12.2 9.6 84 996.9 9.8 S 15.2 0.0 8.1
16:46 12.2 9.6 84 996.9 9.2 S 15.2 0.0 8.1
16:47 12.1 9.5 84 996.6 7.6 S 15.2 0.0 8.1
16:48 12.1 9.5 84 996.7 7.6 S 15.2 0.0 8.1
16:49 12.1 9.5 84 996.7 8.3 S 15.2 0.0 8.1
16:50 12.1 9.5 84 996.4 8.3 S 14.5 0.0 8.1
16:51 12.1 9.5 84 996.4 8.3 S 14.5 0.0 8.1
16:52 12.0 9.6 85 996.8 7.6 S 12.1 0.0 8.1
16:53 12.0 9.6 85 996.6 6.9 S 10.7 0.0 8.1
16:54 12.0 9.6 85 996.5 7.6 S 10.7 0.0 8.1
16:55 12.0 9.6 85 996.8 7.6 S 9.8 0.0 8.1
16:56 12.0 9.6 85 996.5 9.2 S 10.7 0.0 8.1
16:57 12.0 9.6 85 996.7 9.2 S 10.7 0.0 8.1
16:58 12.0 9.6 85 996.8 10.7 S 10.7 0.0 8.1
16:59 12.0 9.6 85 996.7 9.8 S 10.7 0.0 8.1
17:00 12.0 9.7 86 996.7 9.8 S 10.7 0.0 8.1
17:01 12.0 9.7 86 996.5 9.8 S 10.7 0.0 8.1
17:02 12.0 9.7 86 996.9 9.8 S 10.7 0.0 8.1
17:03 12.0 9.7 86 996.5 9.8 S 10.7 0.0 8.1
17:04 12.0 9.7 86 996.5 9.8 S 10.7 0.0 8.1
17:05 12.0 9.9 87 996.3 15.9 S 15.9 0.0 8.1
17:06 12.0 9.9 87 996.9 13.0 SE 15.9 0.0 8.1
17:07 12.0 9.9 87 996.7 13.6 S 15.9 0.0 8.1
17:08 12.1 10.0 87 996.9 28.2 SW 28.2 0.8 8.2
17:09 12.0 9.9 87 997.0 19.7 S 28.2 0.8 8.3
17:10 12.0 9.9 87 997.0 19.7 S 28.2 2.3 8.3
17:11 12.0 9.9 87 996.9 22.1 SW 28.2 2.3 8.3
17:12 11.9 9.8 87 996.8 15.9 S 28.2 3.0 8.4
17:13 11.8 9.7 87 996.8 19.0 S 28.2 2.3 8.4
17:14 11.7 9.6 87 996.7 14.5 SW 28.2 2.3 8.4
17:15 11.6 9.3 86 996.7 13.0 S 28.2 1.5 8.4
17:16 11.5 9.2 86 996.7 13.6 SW 28.2 1.5 8.4
17:17 11.4 9.1 86 996.8 17.4 S 28.2 0.8 8.4
17:18 11.3 9.0 86 996.8 17.4 S 28.2 0.8 8.4
17:19 11.2 8.9 86 996.8 17.4 S 23.5 0.8 8.4
17:20 11.1 8.8 86 996.8 12.1 S 22.1 0.0 8.4
17:21 11.0 8.8 86 996.6 13.0 SSW 19.0 0.0 8.4
17:22 11.0 8.8 86 996.5 16.8 S 19.0 0.8 8.5
17:23 11.0 8.8 86 996.6 14.5 SW 19.0 0.8 8.5
17:24 10.9 8.7 86 996.5 18.3 SW 18.3 0.8 8.5
17:25 10.8 8.6 86 996.5 12.1 S 18.3 0.8 8.5
17:26 10.8 8.6 86 996.6 11.4 SW 18.3 0.8 8.5
17:27 10.8 8.6 86 996.4 10.7 SW 18.3 0.0 8.5
17:28 10.8 8.6 86 996.4 10.7 S 18.3 0.0 8.5
17:29 10.7 8.5 86 996.5 9.2 SE 18.3 0.0 8.5
17:30 10.7 8.5 86 996.4 9.8 WSW 18.3 0.0 8.5
17:31 10.6 8.4 86 996.5 12.1 SW 18.3 0.0 8.5
17:32 10.6 8.4 86 996.3 11.4 SW 18.3 0.0 8.5
17:33 10.6 8.4 86 996.3 9.2 S 18.3 0.0 8.5
17:34 10.6 8.4 86 996.2 9.8 S 18.3 0.0 8.5
17:35 10.6 8.4 86 996.3 9.2 SW 14.5 0.0 8.5
17:36 10.5 8.3 86 996.3 10.7 SE 12.1 0.0 8.5
17:37 10.5 8.3 86 996.2 10.7 S 12.1 0.0 8.5
17:38 10.5 8.3 86 996.1 14.5 SW 14.5 0.0 8.5
17:39 10.4 8.3 87 996.5 14.5 S 14.5 0.0 8.5
17:40 10.4 8.3 87 996.3 11.4 SW 14.5 0.0 8.5
17:41 10.4 8.3 87 996.3 11.4 S 14.5 0.0 8.5
17:42 10.4 8.3 87 996.3 9.8 S 14.5 0.0 8.5
17:43 10.4 8.3 87 996.2 11.4 S 14.5 0.0 8.5
17:44 10.4 8.3 87 996.0 10.7 S 14.5 0.0 8.5
17:45 10.3 8.2 87 996.3 10.7 SW 14.5 0.0 8.5
17:46 10.3 8.2 87 996.3 7.6 S 14.5 0.0 8.5
17:47 10.3 8.2 87 996.3 7.6 S 14.5 0.0 8.5
17:48 10.3 8.2 87 996.3 9.2 S 14.5 0.0 8.5
17:49 10.3 8.2 87 996.1 7.6 S 11.4 0.0 8.5
17:50 10.3 8.2 87 996.3 7.6 S 11.4 0.0 8.5
17:51 10.3 8.2 87 996.3 7.6 S 11.4 0.0 8.5
17:52 10.3 8.4 88 996.2 9.2 S 11.4 0.0 8.5
17:53 10.3 8.4 88 996.2 9.8 S 11.4 0.0 8.5
17:54 10.3 8.4 88 996.2 9.8 SE 10.7 0.0 8.5
17:55 10.3 8.4 88 996.2 9.8 SE 10.7 0.0 8.5
17:56 10.3 8.4 88 996.1 10.7 S 10.7 0.0 8.5
17:57 10.3 8.4 88 996.1 10.7 S 10.7 0.0 8.5
17:58 10.4 8.5 88 996.3 10.7 S 10.7 0.0 8.5
17:59 10.4 8.5 88 996.1 6.9 S 10.7 0.0 8.5
18:00 10.4 8.5 88 996.1 10.7 S 10.7 0.0 8.5
18:01 10.4 8.5 88 996.2 10.7 S 10.7 0.0 8.5
18:02 10.4 8.5 88 996.1 10.7 S 10.7 0.0 8.5
18:03 10.4 8.5 88 996.2 10.7 S 10.7 0.0 8.5
18:04 10.4 8.5 88 996.3 10.7 S 10.7 0.0 8.5
18:05 10.4 8.5 88 996.2 10.7 S 10.7 0.0 8.5
18:06 10.5 8.8 89 996.4 13.6 SW 13.6 0.0 8.5
18:07 10.6 8.9 89 996.1 12.1 SE 13.6 0.0 8.5
18:08 10.6 8.9 89 996.2 9.8 S 13.6 0.0 8.5
18:09 10.6 8.9 89 996.3 13.6 S 13.6 0.0 8.5
18:10 10.6 8.9 89 996.3 13.6 S 13.6 0.0 8.5
18:11 10.6 8.9 89 996.1 13.6 S 13.6 0.0 8.5
18:12 10.7 9.0 89 996.3 13.0 S 13.6 0.0 8.5
18:13 10.7 9.0 89 996.1 13.0 SW 13.6 0.0 8.5
18:14 10.7 9.1 90 996.2 12.1 S 13.6 0.0 8.5
18:15 10.8 9.2 90 996.6 13.6 SW 13.6 0.0 8.5
18:16 10.8 9.2 90 996.2 13.6 S 13.6 0.0 8.5
18:17 10.8 9.2 90 996.2 14.5 S 14.5 0.0 8.5
18:18 10.8 9.2 90 996.4 15.2 SW 15.2 0.0 8.5
18:19 10.8 9.2 90 996.4 12.1 S 15.2 0.0 8.5
18:20 10.9 9.3 90 996.3 12.1 S 15.2 0.0 8.5
18:21 10.9 9.3 90 996.1 12.1 S 15.2 0.0 8.5
18:22 10.9 9.3 90 996.2 10.7 S 15.2 0.0 8.5
18:23 10.9 9.3 90 996.3 9.2 S 15.2 0.0 8.5
18:24 10.9 9.3 90 996.2 12.1 S 15.2 0.0 8.5
18:25 10.9 9.3 90 996.1 9.8 S 15.2 0.0 8.5
18:26 10.9 9.3 90 996.3 9.2 S 15.2 0.0 8.5
18:27 10.9 9.3 90 996.2 9.2 S 15.2 0.0 8.5
18:28 10.9 9.3 90 996.2 9.8 S 15.2 0.0 8.5
18:29 10.9 9.3 90 996.2 13.0 S 15.2 0.0 8.5
18:30 10.9 9.3 90 996.0 13.0 SE 15.2 0.0 8.5
18:31 10.9 9.3 90 996.1 13.6 S 15.2 0.0 8.5
18:32 10.9 9.3 90 996.1 11.4 SW 13.6 0.0 8.5
18:33 10.9 9.2 89 995.8 12.1 SE 13.6 0.0 8.5
18:34 10.9 9.2 89 996.3 12.1 SE 13.6 0.0 8.5
18:35 11.0 9.3 89 996.2 13.0 S 13.6 0.0 8.5
18:36 11.0 9.3 89 996.2 13.6 S 13.6 0.0 8.5
18:37 11.0 9.3 89 996.1 13.6 S 13.6 0.0 8.5
18:38 11.0 9.3 89 996.2 10.7 S 13.6 0.0 8.5
18:39 11.1 9.4 89 996.1 13.6 S 13.6 0.0 8.5
18:40 11.1 9.4 89 996.1 13.6 S 13.6 0.0 8.5
18:41 11.1 9.4 89 996.1 10.7 SE 13.6 0.0 8.5
18:42 11.1 9.4 89 996.1 10.7 S 13.6 0.0 8.5
18:43 11.1 9.4 89 996.1 9.8 S 13.6 0.0 8.5
18:44 11.1 9.4 89 996.2 11.4 SW 13.6 0.0 8.5
18:45 11.2 9.5 89 995.9 9.8 SW 13.6 0.0 8.5
18:46 11.2 9.5 89 996.0 11.4 SW 13.6 0.0 8.5
18:47 11.2 9.5 89 996.0 11.4 SW 13.6 0.0 8.5
18:48 11.2 9.6 90 996.2 13.0 SW 13.6 0.0 8.5
18:49 11.2 9.6 90 996.2 13.0 S 13.6 0.0 8.5
18:50 11.2 9.6 90 996.1 13.6 S 13.6 0.0 8.5
18:51 11.3 9.7 90 995.9 15.9 SW 15.9 0.0 8.5
18:52 11.3 9.7 90 996.1 19.0 SSW 19.0 0.0 8.5
18:53 11.4 9.8 90 996.2 19.0 SSE 19.0 0.0 8.5
18:54 11.4 9.8 90 996.1 18.3 SW 19.0 0.0 8.5
18:55 11.4 9.8 90 995.9 15.9 S 19.0 0.0 8.5
18:56 11.5 9.9 90 995.7 17.4 S 19.0 0.0 8.5
18:57 11.5 9.9 90 995.9 17.4 S 19.0 0.0 8.5
18:58 11.5 9.9 90 995.9 22.1 W 22.1 0.0 8.5
18:59 11.5 9.9 90 996.1 14.5 S 22.1 0.0 8.5
19:00 11.5 9.9 90 995.8 13.0 SSW 22.1 0.0 8.5
19:01 11.5 9.9 90 995.6 13.0 SSW 22.1 0.0 8.5
19:02 11.5 9.9 90 995.8 13.0 SSW 22.1 0.0 8.5
19:03 11.5 9.9 90 995.8 13.0 SSW 22.1 0.0 8.5
19:04 11.5 9.9 90 995.8 13.0 SSW 22.1 0.0 8.5
19:05 11.5 9.9 90 995.9 13.0 SSW 22.1 0.0 8.5
19:06 11.5 9.9 90 995.9 13.0 SSW 22.1 0.0 8.5
19:07 11.5 9.9 90 995.8 13.0 SW 22.1 0.0 8.5
19:08 11.5 9.9 90 995.7 12.1 S 22.1 0.0 8.5
19:09 11.5 9.8 89 995.7 11.4 SW 14.5 0.0 8.5
19:10 11.5 9.8 89 996.0 10.7 S 13.0 0.0 8.5
19:11 11.5 9.8 89 995.8 8.3 SW 13.0 0.0 8.5
19:12 11.4 9.7 89 995.7 12.1 S 13.0 0.0 8.5
19:13 11.4 9.7 89 995.6 9.2 S 13.0 0.0 8.5
19:14 11.4 9.7 89 995.6 8.3 SW 13.0 0.0 8.5
19:15 11.4 9.7 89 995.8 11.4 S 13.0 0.0 8.5
19:16 11.4 9.7 89 995.6 7.6 S 13.0 0.0 8.5
19:17 11.4 9.7 89 995.7 9.2 S 13.0 0.0 8.5
19:18 11.3 9.6 89 995.8 8.3 SE 12.1 0.0 8.5
19:19 11.3 9.6 89 995.7 9.8 S 12.1 0.0 8.5
19:20 11.3 9.6 89 995.7 9.8 S 12.1 0.0 8.5
19:21 11.3 9.6 89 995.8 9.2 S 12.1 0.0 8.5
19:22 11.3 9.6 89 995.6 7.6 SSE 12.1 0.0 8.5
19:23 11.3 9.6 89 995.5 8.3 S 11.4 0.0 8.5
19:24 11.3 9.6 89 995.6 9.8 SW 11.4 0.0 8.5
19:25 11.3 9.6 89 995.5 6.9 S 11.4 0.0 8.5
19:26 11.3 9.6 89 995.6 9.2 SE 11.4 0.0 8.5
19:27 11.3 9.7 90 995.8 9.2 S 11.4 0.0 8.5
19:28 11.3 9.7 90 995.7 8.3 S 11.4 0.0 8.5
19:29 11.3 9.7 90 995.6 7.6 S 11.4 0.0 8.5
19:30 11.3 9.7 90 995.6 7.6 S 9.8 0.0 8.5
19:31 11.3 9.7 90 995.5 5.4 S 9.8 0.0 8.5
19:32 11.3 9.7 90 995.5 7.6 S 9.8 0.0 8.5
19:33 11.3 9.7 90 995.6 7.6 SE 9.8 0.0 8.5
19:34 11.3 9.7 90 995.5 8.3 SE 9.8 0.0 8.5
19:35 11.3 9.7 90 995.4 13.0 SW 13.0 0.0 8.5
19:36 11.3 9.7 90 995.4 8.3 S 13.0 0.0 8.5
19:37 11.3 9.7 90 995.4 7.6 SSE 13.0 0.0 8.5
19:38 11.3 9.7 90 995.6 8.3 S 13.0 0.0 8.5
19:39 11.3 9.7 90 995.6 7.6 SE 13.0 0.0 8.5
19:40 11.4 10.0 91 995.2 9.8 S 13.0 0.0 8.5
19:41 11.4 10.0 91 995.4 9.2 SSE 13.0 0.0 8.5
19:42 11.4 10.0 91 995.5 6.9 SE 13.0 0.0 8.5
19:43 11.4 10.0 91 995.5 8.3 S 13.0 0.0 8.5
19:44 11.5 10.1 91 995.6 8.3 S 13.0 0.0 8.5
19:45 11.5 10.1 91 995.4 8.3 S 10.7 0.0 8.5
19:46 11.5 10.1 91 995.7 9.2 S 10.7 0.0 8.5
19:47 11.6 10.2 91 995.6 11.4 S 11.4 0.0 8.5
19:48 11.6 10.2 91 995.5 9.8 S 11.4 0.0 8.5
19:49 11.6 10.3 92 995.6 10.7 S 11.4 0.0 8.5
19:50 11.6 10.3 92 995.5 9.8 S 11.4 0.0 8.5
19:51 11.6 10.3 92 995.5 13.6 S 13.6 0.0 8.5
19:52 11.6 10.3 92 995.3 8.3 SE 13.6 0.0 8.5
19:53 11.6 10.3 92 995.3 9.8 SSE 13.6 0.0 8.5
19:54 11.6 10.3 92 995.4 14.5 S 14.5 0.0 8.5
19:55 11.6 10.3 92 995.4 22.1 S 22.1 0.0 8.5
19:56 11.6 10.3 92 995.2 15.9 S 22.1 0.0 8.5
19:57 11.6 10.3 92 995.3 15.9 SSW 22.1 0.0 8.5
19:58 11.6 10.3 92 995.2 13.0 S 22.1 0.0 8.5
19:59 11.6 10.3 92 995.2 13.6 S 22.1 0.0 8.5
20:00 11.6 10.3 92 995.2 13.0 S 22.1 0.0 8.5
20:01 11.5 10.1 91 995.1 15.2 S 22.1 0.0 8.5
20:02 11.5 10.1 91 995.2 16.8 S 22.1 0.0 8.5
20:03 11.5 10.1 91 995.1 20.6 S 22.1 0.0 8.5
20:04 11.5 10.1 91 995.2 13.0 S 22.1 0.0 8.5
20:05 11.5 10.1 91 995.4 13.6 SW 20.6 0.0 8.5
20:06 11.5 10.1 91 995.1 15.2 S 20.6 0.0 8.5
20:07 11.4 10.0 91 995.3 15.9 S 20.6 0.0 8.5
20:08 11.4 9.8 90 995.5 15.9 S 20.6 0.0 8.5
20:09 11.4 9.8 90 995.3 14.5 W 20.6 0.0 8.5
20:10 11.4 9.8 90 995.3 14.5 SE 20.6 0.0 8.5
20:11 11.4 9.8 90 995.4 14.5 SE 20.6 0.0 8.5
20:12 11.4 9.8 90 995.2 12.1 S 20.6 0.0 8.5
20:13 11.4 9.8 90 995.3 15.2 S 20.6 0.0 8.5
20:14 11.3 9.7 90 994.9 13.6 S 15.9 0.0 8.5
20:15 11.3 9.7 90 995.1 18.3 S 18.3 0.0 8.5
20:16 11.3 9.7 90 995.2 15.2 S 18.3 0.0 8.5
20:17 11.3 9.7 90 995.1 11.4 S 18.3 0.0 8.5
20:18 11.3 9.7 90 995.2 11.4 S 18.3 0.0 8.5
20:19 11.3 9.7 90 995.2 15.2 S 18.3 0.0 8.5
20:20 11.3 9.7 90 995.1 18.3 SW 18.3 0.0 8.5
20:21 11.3 9.7 90 995.0 12.1 S 18.3 0.0 8.5
20:22 11.3 9.7 90 995.0 13.0 S 18.3 0.0 8.5
20:23 11.3 9.7 90 995.0 13.0 SE 18.3 0.0 8.5
20:24 11.3 9.7 90 995.2 10.7 SW 18.3 0.0 8.5
20:25 11.3 9.7 90 994.9 13.0 S 18.3 0.0 8.5
20:26 11.3 9.7 90 995.0 10.7 S 18.3 0.0 8.5
20:27 11.3 9.7 90 995.0 9.8 S 18.3 0.0 8.5
20:28 11.3 9.7 90 995.1 9.8 S 18.3 0.0 8.5
20:29 11.2 9.6 90 995.0 9.8 S 18.3 0.0 8.5
20:30 11.2 9.6 90 994.9 11.4 SW 18.3 0.0 8.5
20:31 11.2 9.6 90 995.0 11.4 S 13.6 0.0 8.5
20:32 11.2 9.6 90 995.1 13.0 SSE 13.6 0.0 8.5
20:33 11.2 9.6 90 995.1 9.8 S 13.6 0.0 8.5
20:34 11.2 9.5 89 995.1 11.4 SW 13.6 0.0 8.5
20:35 11.2 9.5 89 995.0 9.8 SW 13.6 0.0 8.5
20:36 11.2 9.5 89 995.1 11.4 S 13.6 0.0 8.5
20:37 11.2 9.5 89 995.0 9.8 SW 13.6 0.0 8.5
20:38 11.2 9.5 89 994.8 11.4 SW 13.6 0.0 8.5
20:39 11.2 9.5 89 995.1 11.4 SW 13.6 0.0 8.5
20:40 11.2 9.5 89 994.9 12.1 WSW 13.6 0.0 8.5
20:41 11.2 9.5 89 994.8 11.4 S 13.6 0.0 8.5
20:42 11.3 9.6 89 995.0 13.6 S 13.6 0.0 8.5
20:43 11.3 9.6 89 995.0 14.5 SW 14.5 0.0 8.5
20:44 11.3 9.6 89 994.6 13.0 SE 14.5 0.0 8.5
20:45 11.3 9.6 89 994.8 12.1 SW 14.5 0.0 8.5
20:46 11.3 9.6 89 994.8 12.1 SW 14.5 0.0 8.5
20:47 11.3 9.6 89 994.7 10.7 SE 14.5 0.0 8.5
20:48 11.3 9.6 89 994.7 16.8 S 16.8 0.0 8.5
20:49 11.3 9.6 89 994.4 15.9 S 16.8 0.0 8.5
20:50 11.3 9.6 89 994.9 15.2 SE 16.8 0.0 8.5
20:51 11.3 9.6 89 994.7 15.2 SSE 16.8 0.0 8.5
20:52 11.4 9.7 89 994.6 13.0 S 16.8 0.0 8.5
20:53 11.4 9.7 89 994.8 13.0 SE 16.8 0.0 8.5
20:54 11.4 9.7 89 994.6 13.6 SE 16.8 0.0 8.5
20:55 11.4 9.7 89 994.7 15.2 SW 16.8 0.0 8.5
20:56 11.4 9.7 89 994.7 15.2 S 16.8 0.0 8.5
20:57 11.4 9.7 89 994.5 13.0 SE 16.8 0.0 8.5
20:58 11.5 9.8 89 994.6 17.4 S 17.4 0.0 8.5
20:59 11.5 9.8 89 994.7 17.4 SW 17.4 0.0 8.5
21:00 11.5 9.8 89 994.6 15.2 S 17.4 0.0 8.5
21:01 11.5 9.8 89 994.6 15.2 S 17.4 0.0 8.5
21:02 11.5 9.8 89 994.7 15.2 S 17.4 0.0 8.5
21:03 11.5 9.8 89 994.4 15.2 S 17.4 0.0 8.5
21:04 11.5 9.8 89 994.6 15.2 S 17.4 0.0 8.5
21:05 11.5 9.8 89 994.6 15.2 S 17.4 0.0 8.5
21:06 11.5 9.8 89 994.5 15.2 S 17.4 0.0 8.5
21:07 11.6 9.9 89 994.4 19.7 SE 19.7 0.0 8.5
21:08 11.6 10.0 90 994.6 17.4 S 19.7 0.0 8.5
21:09 11.6 10.0 90 994.5 18.3 S 19.7 0.0 8.5
21:10 11.6 10.0 90 994.4 18.3 S 19.7 0.0 8.5
21:11 11.6 10.0 90 994.5 13.0 SE 19.7 0.0 8.5
21:12 11.6 10.0 90 994.4 14.5 S 19.7 0.0 8.5
21:13 11.6 10.0 90 994.6 14.5 S 19.7 0.0 8.5
21:14 11.6 10.0 90 994.6 14.5 S 19.7 0.0 8.5
21:15 11.6 10.0 90 994.3 14.5 S 19.7 0.0 8.5
21:16 11.7 10.1 90 994.6 18.3 SSE 19.7 0.0 8.5
21:17 11.7 10.1 90 994.5 16.8 S 19.0 0.0 8.5
21:18 11.7 10.1 90 994.5 15.9 SE 19.0 0.0 8.5
21:19 11.7 10.1 90 994.6 15.9 SE 18.3 0.0 8.5
21:20 11.7 10.1 90 994.6 15.9 SE 18.3 0.0 8.5
21:21 11.7 10.1 90 994.4 14.5 S 18.3 0.0 8.5
21:22 11.7 10.1 90 994.4 15.9 S 18.3 0.0 8.5
21:23 11.7 10.1 90 994.6 15.2 SSW 18.3 0.0 8.5
21:24 11.7 10.1 90 994.4 15.2 S 18.3 0.0 8.5
21:25 11.7 10.1 90 994.5 13.6 S 18.3 0.0 8.5
21:26 11.7 10.1 90 994.6 13.6 SSW 18.3 0.8 8.6
21:27 11.7 10.1 90 994.6 13.6 SSW 17.4 0.8 8.6
21:28 11.7 10.1 90 994.6 19.0 SSE 19.0 0.8 8.6
21:29 11.7 10.1 90 994.3 19.0 S 19.0 0.8 8.6
21:30 11.7 10.1 90 994.3 20.6 S 20.6 0.8 8.6
21:31 11.7 10.1 90 994.5 18.3 S 20.6 0.0 8.6
21:32 11.7 10.1 90 994.3 14.5 SE 20.6 0.0 8.6
21:33 11.7 10.1 90 994.2 15.9 S 20.6 0.0 8.6
21:34 11.7 10.1 90 994.4 14.5 S 20.6 0.0 8.6
21:35 11.7 10.1 90 994.4 15.9 S 20.6 0.8 8.6
21:36 11.7 10.1 90 994.3 16.8 SE 20.6 0.8 8.6
21:37 11.7 10.1 90 994.2 14.5 S 20.6 0.8 8.6
21:38 11.7 10.1 90 994.3 17.4 S 20.6 0.8 8.7
21:39 11.7 10.1 90 994.5 14.5 S 20.6 1.5 8.7
21:40 11.7 10.1 90 994.5 16.8 S 18.3 0.8 8.7
21:41 11.7 10.1 90 994.2 15.9 S 17.4 0.8 8.7
21:42 11.7 10.1 90 994.4 14.5 S 17.4 0.8 8.7
21:43 11.7 10.1 90 994.3 13.6 SE 17.4 0.8 8.7
21:44 11.7 10.1 90 994.3 13.6 S 17.4 0.0 8.7
21:45 11.7 10.3 91 994.1 13.6 S 17.4 0.0 8.7
21:46 11.7 10.3 91 994.2 15.2 SE 17.4 0.8 8.8
21:47 11.7 10.3 91 994.2 15.2 SE 17.4 0.8 8.8
21:48 11.7 10.3 91 994.2 14.5 SSE 17.4 0.8 8.8
21:49 11.8 10.4 91 994.2 17.4 WSW 17.4 1.5 8.8
21:50 11.8 10.4 91 994.0 16.8 S 17.4 1.5 8.8
21:51 11.8 10.4 91 993.9 13.0 S 17.4 0.8 8.8
21:52 11.8 10.4 91 993.9 13.6 SW 17.4 0.8 8.8
21:53 11.8 10.5 92 994.1 15.9 SW 17.4 0.8 8.8
21:54 11.8 10.5 92 994.2 15.9 SW 17.4 0.0 8.8
21:55 11.8 10.5 92 994.0 14.5 SSE 17.4 0.0 8.9
21:56 11.8 10.5 92 994.1 14.5 SSE 17.4 0.8 8.9
21:57 11.9 10.6 92 993.9 17.4 SW 17.4 0.8 8.9
21:58 11.9 10.6 92 994.1 15.2 S 17.4 0.8 8.9
21:59 11.9 10.6 92 994.1 15.2 SSE 17.4 1.5 8.9
22:00 11.9 10.6 92 994.1 15.9 SW 17.4 1.5 8.9
22:01 11.9 10.8 93 994.2 15.2 S 19.7 0.8 8.9
22:02 11.9 10.8 93 994.2 15.2 S 19.7 0.8 8.9
22:03 11.9 10.8 93 993.8 15.2 S 19.7 0.8 8.9
22:04 11.9 10.8 93 993.9 16.8 S 19.7 0.0 8.9
22:05 12.0 10.9 93 994.0 18.3 S 19.7 0.0 8.9
22:06 12.0 10.9 93 993.9 19.0 SW 19.7 0.0 8.9
22:07 12.0 10.9 93 993.9 15.9 S 19.7 0.0 8.9
22:08 12.0 10.9 93 993.8 19.0 S 19.7 0.0 8.9
22:09 12.0 10.9 93 993.7 15.2 SE 19.7 0.0 8.9
22:10 12.0 10.9 93 993.8 17.4 S 19.7 0.8 9.0
22:11 12.0 11.1 94 993.9 12.1 S 19.0 0.8 9.0
22:12 12.0 11.1 94 994.1 14.5 S 19.0 0.8 9.0
22:13 12.0 11.1 94 994.4 15.2 SW 19.0 1.5 9.1
22:14 12.1 11.2 94 994.7 15.9 NW 19.0 1.5 9.1
22:15 12.1 11.2 94 994.6 15.9 NW 19.0 1.5 9.1
22:16 11.9 11.0 94 994.6 19.7 WSW 19.7 5.3 9.4
22:17 11.8 10.9 94 994.5 12.1 SW 19.7 9.1 9.8
22:18 11.4 10.3 93 994.6 17.4 SW 19.7 8.3 10.6
22:19 11.2 10.1 93 994.5 13.0 SW 19.7 18.1 10.8
22:20 11.0 9.8 92 994.7 13.6 S 19.7 21.9 11.0
22:21 10.9 9.7 92 994.6 13.6 S 19.7 20.4 11.2
22:22 10.7 9.5 92 994.6 13.6 SW 19.7 19.7 11.4
22:25 10.2 8.8 91 994.1 9.2 SW 19.7 13.6 12.1
22:26 10.1 8.7 91 994.2 9.8 S 17.4 12.1 12.2
22:27 10.1 8.7 91 993.9 9.8 S 17.4 9.1 12.2
22:28 9.9 8.3 90 993.9 10.7 SSW 17.4 13.6 12.6
22:29 9.8 8.2 90 994.3 12.1 SW 13.6 6.0 12.7
22:30 9.8 8.2 90 994.3 14.5 SSW 14.5 6.8 12.9
22:32 9.7 8.1 90 994.1 17.4 S 17.4 12.8 13.4
22:33 9.7 8.1 90 994.1 17.4 S 17.4 10.6 13.4
22:34 9.8 8.4 91 994.2 14.5 SW 17.4 12.1 13.7
22:35 9.8 8.4 91 994.0 13.0 SE 17.4 12.1 13.7
22:36 9.8 8.4 91 994.0 13.0 SE 17.4 9.8 13.7
22:37 9.9 8.5 91 994.1 15.9 S 17.4 6.8 13.8
22:38 9.9 8.5 91 994.1 14.5 S 17.4 4.5 13.8
22:39 9.9 8.5 91 993.9 17.4 SW 17.4 2.3 13.9
22:40 9.9 8.7 92 994.0 17.4 SW 17.4 3.0 13.9
22:41 10.0 8.8 92 994.1 15.2 WSW 17.4 3.8 14.0
22:42 10.0 8.8 92 993.9 14.5 SW 17.4 3.0 14.0
22:43 10.0 8.8 92 994.0 17.4 SSW 17.4 3.0 14.0
22:44 10.0 8.8 92 993.8 15.2 NW 17.4 4.5 14.2
22:46 10.1 8.9 92 993.7 14.5 WSW 17.4 3.0 14.3
22:47 10.1 9.0 93 993.9 13.6 SSE 17.4 3.0 14.3
22:48 10.1 9.0 93 993.4 13.0 SW 17.4 3.0 14.3
22:49 10.1 9.0 93 993.9 15.9 SSW 17.4 2.3 14.4
22:50 10.1 9.0 93 993.9 14.5 S 17.4 3.0 14.4
22:51 10.2 9.1 93 993.8 21.3 S 21.3 2.3 14.4
22:52 10.2 9.1 93 993.8 21.3 S 21.3 1.5 14.4
22:53 10.2 9.1 93 993.8 15.2 S 21.3 2.3 14.5
22:54 10.2 9.1 93 993.8 16.8 S 21.3 1.5 14.6
22:55 10.2 9.3 94 993.9 16.8 S 21.3 1.5 14.6
22:56 10.2 9.3 94 993.8 17.4 SW 21.3 3.0 14.7
22:57 10.2 9.3 94 993.8 17.4 S 21.3 3.0 14.7
22:58 10.2 9.3 94 993.6 17.4 SE 21.3 3.0 14.8
23:01 10.2 9.3 94 993.8 15.9 S 21.3 1.5 14.8
23:02 10.2 9.3 94 993.8 15.9 S 21.3 1.5 14.8
23:03 10.2 9.3 94 993.7 15.9 S 19.7 0.8 14.8
23:04 10.2 9.3 94 993.8 15.9 S 19.7 0.0 14.8
23:05 10.2 9.3 94 993.6 15.9 S 19.7 0.0 14.8
23:06 10.2 9.3 94 993.7 19.0 SW 19.7 0.0 15.1
23:07 10.2 9.3 94 993.7 17.4 SW 19.7 3.8 15.2
23:08 10.2 9.3 94 993.5 19.0 SW 19.7 4.5 15.2
23:09 10.2 9.3 94 993.5 19.7 S 19.7 4.5 15.2
23:10 10.2 9.4 95 993.6 18.3 SW 19.7 5.3 15.2
23:11 10.2 9.4 95 993.3 17.4 SW 19.7 5.3 15.2
23:12 10.2 9.4 95 993.4 20.6 S 20.6 2.3 15.3
23:13 10.2 9.4 95 993.2 17.4 S 20.6 1.5 15.3
23:14 10.2 9.4 95 993.1 13.0 S 20.6 1.5 15.3
23:15 10.2 9.4 95 993.2 17.4 S 20.6 0.8 15.3
23:17 10.2 9.4 95 993.3 16.8 S 20.6 0.8 15.4
23:18 10.3 9.5 95 993.1 14.5 SW 20.6 1.5 15.4
23:19 10.3 9.5 95 993.2 13.6 SSW 20.6 1.5 15.4
23:20 10.3 9.5 95 993.3 10.7 S 20.6 2.3 15.5
23:21 10.3 9.5 95 993.3 9.8 SE 20.6 1.5 15.5
23:22 10.3 9.5 95 993.2 15.2 S 20.6 1.5 15.5
23:23 10.3 9.5 95 993.0 7.6 SW 17.4 0.8 15.5
23:24 10.3 9.5 95 993.1 13.0 S 17.4 1.5 15.6
23:25 10.3 9.5 95 993.0 13.0 S 17.4 0.8 15.6
23:26 10.3 9.5 95 992.9 16.8 S 16.8 0.8 15.6
23:27 10.3 9.5 95 993.2 15.2 SW 16.8 0.8 15.6
23:28 10.3 9.5 95 992.8 9.2 S 16.8 0.8 15.6
23:29 10.3 9.5 95 992.9 13.0 SW 16.8 0.8 15.7
23:30 10.3 9.5 95 992.9 13.0 S 16.8 1.5 15.7
23:32 10.3 9.5 95 992.9 13.0 S 16.8 2.3 15.7
23:33 10.3 9.5 95 992.6 13.0 S 16.8 2.3 15.8
23:34 10.3 9.5 95 992.8 11.4 S 16.8 2.3 15.8
23:35 10.3 9.5 95 992.7 13.0 SW 16.8 1.5 15.9
23:36 10.3 9.5 95 992.7 8.3 S 16.8 3.0 15.9
23:37 10.3 9.5 95 992.6 13.6 SE 15.2 3.0 16.0
23:38 10.3 9.5 95 992.8 15.2 S 15.2 3.0 16.1
23:39 10.3 9.5 95 992.6 15.2 SSW 15.2 3.0 16.1
23:40 10.3 9.5 95 992.7 15.2 SSW 15.2 3.0 16.1
23:41 10.3 9.5 95 992.6 14.5 S 15.2 2.3 16.2
23:42 10.2 9.4 95 992.6 19.0 SW 19.0 2.3 16.3
23:43 10.2 9.4 95 992.5 17.4 S 19.0 3.0 16.3
23:44 10.2 9.4 95 992.6 16.8 S 19.0 3.8 16.4
23:45 10.2 9.4 95 992.4 16.8 S 19.0 4.5 16.5
23:47 10.2 9.4 95 992.3 13.6 S 19.0 4.5 16.6
23:48 10.2 9.4 95 992.3 12.1 S 19.0 4.5 16.6
23:49 10.2 9.4 95 992.3 13.0 S 19.0 3.0 16.6
23:50 10.2 9.4 95 992.5 15.9 SSW 19.0 3.0 16.7
23:51 10.2 9.4 95 992.5 16.8 S 19.0 2.3 16.8
23:52 10.1 9.3 95 992.4 16.8 SW 19.0 3.0 16.8
23:53 10.1 9.3 95 992.5 17.4 S 17.4 2.3 16.8
23:54 10.1 9.3 95 992.3 20.6 S 20.6 3.0 16.9
23:55 10.1 9.3 95 992.4 19.0 S 20.6 3.0 16.9
23:56 10.1 9.3 95 992.3 16.8 SE 20.6 3.8 17.1
23:57 10.1 9.3 95 992.2 13.0 S 20.6 3.0 17.1
23:58 10.1 9.3 95 992.0 10.7 S 20.6 3.0 17.2
23:59 10.1 9.3 95 992.0 12.1 S 20.6 3.8 17.2

 

 

UK - WEATHER STATION TOPSITES - UK World Weather Websites

Copyright © Carnkie Weather 2009 - 2022.